THY99D KMIA-LTFM

Flight info

Callsign THY99D
Flight time 10h 33m
Altitude 33000
Route FOLZZ3 ZFP DCT BAAGR DCT CNNOR/M084F330 M328 ANTIG DCT BALOO DCT 35N060W 39N050W/M084F350 42N040W 45N030W 46N020W 47N015W DCT BUNAV UN536 TIVLU/N0487F350 DCT GALOF/N0484F380 DCT PECNO DCT VALKU/N0481F370 DCT TIS DCT MEBAK DCT GIPNO DCT BALSI DCT OBIGO DCT ROBEX DCT LAPRI/N0478F380 DCT MOGBO/N0479F370 DCT OSBUL DCT NISVA DCT DEDIN DCT AYTEK
Aircraft B77W/H-SDE1E2E3FGHIJ2J3J4J5M1RWXY/LB1D1

Departure

Time 2026-05-03 23:09
Airport Miami International Airport (KMIA)

Arrival

Time 2026-05-04 09:43
Airport İstanbul Airport (LTFM)
Time Latitude Longitude Altitude Speed Heading
2026-05-03 22:34 25.79006 -80.27343 20 ft 0 kts
2026-05-03 22:54 25.79005 -80.27343 20 ft 1 kts
2026-05-03 22:54 25.78983 -80.27343 21 ft 3 kts
2026-05-03 22:54 25.78960 -80.27344 23 ft 2 kts
2026-05-03 22:55 25.78940 -80.27342 23 ft 3 kts 331°
2026-05-03 22:55 25.78927 -80.27326 25 ft 3 kts 277°
2026-05-03 22:55 25.78926 -80.27324 20 ft 3 kts 267°
2026-05-03 22:55 25.78925 -80.27351 20 ft 3 kts 267°
2026-05-03 22:56 25.78924 -80.27378 20 ft 3 kts 267°
2026-05-03 22:56 25.78923 -80.27405 20 ft 3 kts 267°
2026-05-03 22:56 25.78925 -80.27418 20 ft 3 kts 304°
2026-05-03 22:56 25.78925 -80.27421 20 ft 3 kts 282°
2026-05-03 22:57 25.78923 -80.27430 20 ft 0 kts 258°
2026-05-03 23:01 25.78919 -80.27452 20 ft 10 kts 258°
2026-05-03 23:01 25.78906 -80.27524 20 ft 10 kts 258°
2026-05-03 23:01 25.78892 -80.27603 20 ft 10 kts 258°
2026-05-03 23:02 25.78882 -80.27683 20 ft 10 kts 266°
2026-05-03 23:02 25.78878 -80.27764 20 ft 10 kts 266°
2026-05-03 23:02 25.78873 -80.27844 20 ft 10 kts 266°
2026-05-03 23:02 25.78872 -80.27925 23 ft 10 kts 277°
2026-05-03 23:03 25.78899 -80.28001 25 ft 11 kts 298°
2026-05-03 23:03 25.78936 -80.28074 23 ft 11 kts 299°
2026-05-03 23:03 25.78974 -80.28148 21 ft 11 kts 299°
2026-05-03 23:03 25.79010 -80.28222 21 ft 11 kts 299°
2026-05-03 23:04 25.79051 -80.28300 21 ft 14 kts 300°
2026-05-03 23:04 25.79114 -80.28416 20 ft 15 kts 307°
2026-05-03 23:04 25.79175 -80.28511 19 ft 15 kts 301°
2026-05-03 23:04 25.79225 -80.28611 19 ft 15 kts 298°
2026-05-03 23:05 25.79279 -80.28711 19 ft 15 kts 299°
2026-05-03 23:05 25.79330 -80.28814 19 ft 16 kts 300°
2026-05-03 23:05 25.79388 -80.28926 19 ft 18 kts 299°
2026-05-03 23:05 25.79451 -80.29050 19 ft 19 kts 300°
2026-05-03 23:06 25.79521 -80.29187 20 ft 21 kts 300°
2026-05-03 23:06 25.79594 -80.29330 20 ft 23 kts 300°
2026-05-03 23:06 25.79675 -80.29489 20 ft 24 kts 298°
2026-05-03 23:06 25.79758 -80.29650 19 ft 24 kts 300°
2026-05-03 23:07 25.79832 -80.29795 19 ft 20 kts 300°
2026-05-03 23:07 25.79899 -80.29927 19 ft 20 kts 299°
2026-05-03 23:07 25.79953 -80.30034 18 ft 13 kts 299°
2026-05-03 23:07 25.80002 -80.30114 19 ft 11 kts 323°
2026-05-03 23:08 25.80063 -80.30098 18 ft 10 kts 59°
2026-05-03 23:08 25.80078 -80.29970 17 ft 31 kts 86°
2026-05-03 23:08 25.80099 -80.29454 19 ft 104 kts 87°
2026-05-03 23:08 25.80144 -80.28399 20 ft 168 kts 87°
2026-05-03 23:09 25.80207 -80.26960 293 ft 190 kts 86°
2026-05-03 23:09 25.80234 -80.25480 808 ft 194 kts 92°
2026-05-03 23:09 25.79955 -80.23994 1294 ft 200 kts 120°
2026-05-03 23:09 25.79199 -80.22680 1765 ft 208 kts 121°
2026-05-03 23:10 25.78437 -80.21230 1938 ft 230 kts 118°
2026-05-03 23:10 25.77618 -80.19617 2251 ft 247 kts 119°
2026-05-03 23:10 25.76770 -80.17944 2727 ft 256 kts 119°
2026-05-03 23:10 25.75883 -80.16159 3168 ft 270 kts 120°
2026-05-03 23:11 25.74965 -80.14316 3777 ft 276 kts 120°
2026-05-03 23:11 25.74219 -80.12355 4342 ft 281 kts 99°
2026-05-03 23:11 25.74397 -80.10196 4860 ft 286 kts 66°
2026-05-03 23:11 25.75481 -80.08343 4994 ft 290 kts 47°
2026-05-03 23:12 25.76819 -80.06661 5109 ft 291 kts 46°
2026-05-03 23:12 25.78164 -80.04983 5750 ft 292 kts 46°
2026-05-03 23:12 25.79479 -80.03257 6397 ft 294 kts 56°
2026-05-03 23:12 25.80275 -80.01145 6891 ft 299 kts 74°
2026-05-03 23:13 25.81120 -79.99046 7287 ft 301 kts 48°
2026-05-03 23:13 25.82565 -79.97361 7801 ft 303 kts 44°
2026-05-03 23:13 25.84017 -79.95644 8446 ft 306 kts 45°
2026-05-03 23:13 25.85465 -79.93893 9139 ft 308 kts 46°
2026-05-03 23:14 25.86919 -79.92136 9792 ft 311 kts 45°
2026-05-03 23:14 25.88394 -79.90362 10319 ft 317 kts 45°
2026-05-03 23:14 25.89926 -79.88526 10511 ft 338 kts 45°
2026-05-03 23:14 25.91573 -79.86557 10695 ft 359 kts 45°
2026-05-03 23:15 25.93288 -79.84509 10855 ft 380 kts 45°
2026-05-03 23:15 25.95148 -79.82286 11168 ft 396 kts 45°
2026-05-03 23:15 25.97033 -79.80031 11681 ft 405 kts 45°
2026-05-03 23:15 25.98969 -79.77713 12286 ft 413 kts 46°
2026-05-03 23:16 26.00926 -79.75369 13009 ft 417 kts 46°
2026-05-03 23:16 26.02892 -79.73014 13722 ft 421 kts 46°
2026-05-03 23:16 26.03193 -79.72654 13836 ft 422 kts 46°
2026-05-03 23:16 26.03940 -79.71759 14068 ft 423 kts 46°
2026-05-03 23:17 26.05790 -79.69542 14627 ft 428 kts 46°
2026-05-03 23:17 26.07821 -79.67107 15223 ft 433 kts 45°
2026-05-03 23:17 26.09883 -79.64635 15823 ft 438 kts 45°
2026-05-03 23:17 26.11900 -79.62069 15993 ft 442 kts 51°
2026-05-03 23:18 26.13711 -79.59310 16005 ft 441 kts 54°
2026-05-03 23:18 26.15427 -79.56476 16003 ft 441 kts 55°
2026-05-03 23:18 26.17132 -79.53636 16011 ft 441 kts 55°
2026-05-03 23:18 26.18837 -79.50846 16024 ft 442 kts 54°
2026-05-03 23:19 26.20590 -79.48034 16013 ft 443 kts 54°
2026-05-03 23:19 26.22368 -79.45218 16010 ft 444 kts 53°
2026-05-03 23:19 26.24134 -79.42435 16002 ft 444 kts 53°
2026-05-03 23:19 26.25918 -79.39623 16002 ft 444 kts 54°
2026-05-03 23:20 26.27700 -79.36808 16008 ft 445 kts 54°
2026-05-03 23:20 26.29433 -79.33961 15999 ft 444 kts 58°
2026-05-03 23:20 26.30877 -79.30916 16011 ft 444 kts 64°
2026-05-03 23:20 26.31621 -79.29096 16022 ft 444 kts 66°
2026-05-03 23:21 26.32837 -79.25929 16015 ft 445 kts 67°
2026-05-03 23:21 26.34039 -79.22754 16012 ft 445 kts 67°
2026-05-03 23:21 26.35268 -79.19572 16185 ft 450 kts 66°
2026-05-03 23:21 26.36541 -79.16356 16817 ft 453 kts 66°
2026-05-03 23:22 26.39153 -79.09914 18143 ft 460 kts 65°
2026-05-03 23:22 26.40488 -79.06652 18652 ft 465 kts 65°
2026-05-03 23:22 26.41841 -79.03353 19112 ft 471 kts 65°
2026-05-03 23:23 26.43207 -79.00016 19591 ft 476 kts 65°
2026-05-03 23:23 26.44589 -78.96636 20115 ft 480 kts 65°
2026-05-03 23:23 26.45980 -78.93227 20587 ft 486 kts 65°
2026-05-03 23:23 26.47385 -78.89780 21077 ft 490 kts 65°
2026-05-03 23:24 26.48800 -78.86303 21572 ft 494 kts 65°
2026-05-03 23:24 26.50231 -78.82784 22058 ft 499 kts 65°
2026-05-03 23:24 26.51666 -78.79251 22529 ft 503 kts 65°
2026-05-03 23:24 26.53118 -78.75675 22983 ft 507 kts 65°
2026-05-03 23:25 26.54582 -78.72069 23432 ft 512 kts 65°
2026-05-03 23:25 26.55887 -78.68356 23808 ft 516 kts 76°
2026-05-03 23:25 26.56552 -78.64470 24201 ft 516 kts 83°
2026-05-03 23:25 26.57001 -78.60483 24618 ft 518 kts 85°
2026-05-03 23:26 26.57405 -78.56473 24996 ft 521 kts 85°
2026-05-03 23:26 26.57819 -78.52436 25361 ft 525 kts 84°
2026-05-03 23:26 26.58266 -78.48377 25722 ft 528 kts 84°
2026-05-03 23:26 26.58747 -78.44293 26099 ft 531 kts 83°
2026-05-03 23:27 26.59254 -78.40193 26460 ft 534 kts 83°
2026-05-03 23:27 26.59778 -78.36065 26815 ft 537 kts 83°
2026-05-03 23:27 26.60308 -78.31920 27162 ft 540 kts 83°
2026-05-03 23:27 26.60841 -78.27753 27502 ft 543 kts 83°
2026-05-03 23:28 26.61373 -78.23563 27829 ft 546 kts 83°
2026-05-03 23:28 26.61903 -78.19353 28150 ft 549 kts 83°
2026-05-03 23:28 26.62433 -78.15123 28454 ft 551 kts 83°
2026-05-03 23:28 26.62964 -78.10867 28753 ft 554 kts 83°
2026-05-03 23:29 26.63494 -78.06595 29040 ft 556 kts 83°
2026-05-03 23:29 26.64026 -78.02303 29308 ft 559 kts 83°
2026-05-03 23:29 26.64559 -77.97989 29570 ft 561 kts 83°
2026-05-03 23:29 26.65086 -77.93720 29901 ft 561 kts 84°
2026-05-03 23:30 26.65617 -77.89408 30406 ft 557 kts 84°
2026-05-03 23:30 26.66144 -77.85122 30724 ft 557 kts 84°
2026-05-03 23:30 26.66671 -77.80821 31017 ft 557 kts 84°
2026-05-03 23:30 26.67195 -77.76532 31342 ft 557 kts 84°
2026-05-03 23:31 26.67717 -77.72244 31690 ft 555 kts 84°
2026-05-03 23:31 26.68236 -77.67972 32048 ft 554 kts 84°
2026-05-03 23:31 26.68754 -77.63706 32395 ft 553 kts 84°
2026-05-03 23:31 26.69268 -77.59448 32706 ft 552 kts 84°
2026-05-03 23:32 26.69782 -77.55193 32976 ft 553 kts 84°
2026-05-03 23:32 26.70295 -77.50920 33028 ft 556 kts 84°
2026-05-03 23:32 26.71319 -77.42369 33018 ft 552 kts 85°
2026-05-03 23:33 26.72332 -77.33881 33036 ft 549 kts 85°
2026-05-03 23:33 26.73167 -77.26842 33038 ft 549 kts 85°
2026-05-03 23:34 26.74328 -77.16996 33038 ft 550 kts 84°
2026-05-03 23:34 26.75324 -77.08507 33041 ft 551 kts 85°
2026-05-03 23:35 26.76157 -77.01375 33046 ft 552 kts 85°
2026-05-03 23:35 26.77142 -76.92898 33040 ft 553 kts 85°
2026-05-03 23:36 26.78130 -76.84361 33035 ft 554 kts 85°
2026-05-03 23:36 26.79114 -76.75797 33044 ft 555 kts 85°
2026-05-03 23:37 26.80094 -76.67232 33042 ft 555 kts 85°
2026-05-03 23:37 26.81101 -76.58655 33040 ft 556 kts 82°
2026-05-03 23:38 26.83385 -76.50393 33066 ft 557 kts 66°
2026-05-03 23:38 26.87263 -76.42899 33064 ft 556 kts 54°
2026-05-03 23:39 26.91718 -76.35811 33048 ft 556 kts 53°
2026-05-03 23:39 26.96147 -76.28704 33048 ft 556 kts 54°
2026-05-03 23:40 27.00494 -76.21597 33042 ft 556 kts 54°
2026-05-03 23:40 27.04848 -76.14418 33060 ft 556 kts 54°
2026-05-03 23:41 27.09204 -76.07227 33054 ft 557 kts 54°
2026-05-03 23:41 27.13559 -76.00036 33057 ft 557 kts 54°
2026-05-03 23:42 27.17911 -75.92842 33056 ft 557 kts 54°
2026-05-03 23:42 27.22269 -75.85627 33052 ft 558 kts 54°
2026-05-03 23:43 27.26620 -75.78411 33047 ft 558 kts 54°
2026-05-03 23:43 27.30971 -75.71185 33054 ft 558 kts 54°
2026-05-03 23:44 27.35290 -75.63997 33054 ft 559 kts 55°
2026-05-03 23:44 27.39639 -75.56750 33058 ft 559 kts 55°
2026-05-03 23:45 27.43982 -75.49499 33061 ft 558 kts 55°
2026-05-03 23:45 27.48317 -75.42250 33049 ft 558 kts 55°
2026-05-03 23:46 27.52648 -75.34995 33070 ft 558 kts 55°
2026-05-03 23:46 27.56981 -75.27726 33068 ft 559 kts 55°
2026-05-03 23:47 27.61316 -75.20440 33072 ft 560 kts 55°
2026-05-03 23:47 27.65622 -75.13193 33073 ft 559 kts 55°
2026-05-03 23:48 27.69947 -75.05899 33064 ft 559 kts 55°
2026-05-03 23:48 27.74271 -74.98596 33067 ft 559 kts 55°
2026-05-03 23:49 27.78598 -74.91273 33078 ft 560 kts 56°
2026-05-03 23:49 27.82927 -74.83937 33103 ft 560 kts 55°
2026-05-03 23:50 27.87219 -74.76629 33087 ft 561 kts 56°
2026-05-03 23:50 27.91514 -74.69272 33078 ft 560 kts 56°
2026-05-03 23:51 27.95806 -74.61910 33085 ft 560 kts 56°
2026-05-03 23:51 28.00088 -74.54558 33086 ft 559 kts 56°
2026-05-03 23:52 28.04362 -74.47208 33087 ft 558 kts 56°
2026-05-03 23:52 28.08628 -74.39860 33088 ft 559 kts 56°
2026-05-03 23:53 28.12895 -74.32497 33077 ft 559 kts 56°
2026-05-03 23:53 28.17128 -74.25179 33092 ft 559 kts 56°
2026-05-03 23:54 28.21396 -74.17787 33084 ft 560 kts 56°
2026-05-03 23:54 28.25667 -74.10378 33084 ft 561 kts 56°
2026-05-03 23:55 28.29927 -74.02962 33120 ft 561 kts 56°
2026-05-03 23:55 28.34190 -73.95521 33088 ft 562 kts 56°
2026-05-03 23:56 28.38448 -73.88074 33093 ft 563 kts 56°
2026-05-03 23:56 28.42709 -73.80610 33093 ft 563 kts 56°
2026-05-03 23:57 28.46972 -73.73131 33089 ft 563 kts 56°
2026-05-03 23:57 28.51204 -73.65694 33093 ft 563 kts 56°
2026-05-03 23:58 28.55456 -73.58208 33105 ft 564 kts 56°
2026-05-03 23:58 28.59712 -73.50701 33104 ft 565 kts 56°
2026-05-03 23:59 28.63967 -73.43182 33099 ft 565 kts 56°
2026-05-03 23:59 28.68221 -73.35652 33100 ft 565 kts 57°
2026-05-04 00:00 28.72468 -73.28121 33085 ft 565 kts 57°
2026-05-04 00:00 28.76706 -73.20592 33138 ft 565 kts 57°
2026-05-04 00:01 28.80918 -73.13096 33113 ft 565 kts 57°
2026-05-04 00:01 28.85157 -73.05540 33103 ft 566 kts 57°
2026-05-04 00:02 28.89396 -72.97968 33110 ft 566 kts 57°
2026-05-04 00:02 28.93627 -72.90398 33099 ft 565 kts 57°
2026-05-04 00:03 28.97849 -72.82828 33108 ft 565 kts 57°
2026-05-04 00:03 29.02073 -72.75244 33114 ft 566 kts 57°
2026-05-04 00:04 29.06297 -72.67643 33113 ft 566 kts 57°
2026-05-04 00:04 29.10518 -72.60036 33093 ft 567 kts 57°
2026-05-04 00:05 29.14735 -72.52421 33116 ft 567 kts 57°
2026-05-04 00:05 29.18952 -72.44791 33117 ft 567 kts 57°
2026-05-04 00:06 29.23163 -72.37161 33129 ft 567 kts 57°
2026-05-04 00:06 29.27347 -72.29563 33120 ft 568 kts 57°
2026-05-04 00:07 29.31559 -72.21902 33110 ft 568 kts 57°
2026-05-04 00:07 29.35765 -72.14235 33122 ft 568 kts 58°
2026-05-04 00:08 29.39966 -72.06563 33120 ft 568 kts 58°
2026-05-04 00:08 29.44162 -71.98886 33121 ft 568 kts 58°
2026-05-04 00:09 29.48350 -71.91212 33124 ft 567 kts 58°
2026-05-04 00:09 29.52504 -71.83585 33118 ft 566 kts 58°
2026-05-04 00:10 29.56674 -71.75912 33123 ft 566 kts 58°
2026-05-04 00:10 29.60836 -71.68241 33119 ft 566 kts 58°
2026-05-04 00:11 29.64996 -71.60559 33143 ft 565 kts 58°
2026-05-04 00:11 29.69155 -71.52864 33114 ft 567 kts 58°
2026-05-04 00:12 29.73311 -71.45161 33123 ft 567 kts 58°
2026-05-04 00:12 29.77469 -71.37438 33122 ft 568 kts 58°
2026-05-04 00:13 29.81625 -71.29704 33121 ft 568 kts 58°
2026-05-04 00:13 29.85778 -71.21962 33119 ft 568 kts 58°
2026-05-04 00:14 29.89927 -71.14212 33124 ft 569 kts 58°
2026-05-04 00:14 29.94060 -71.06477 33120 ft 569 kts 58°
2026-05-04 00:15 29.98212 -70.98692 33121 ft 570 kts 58°
2026-05-04 00:15 30.02358 -70.90903 33124 ft 570 kts 58°
2026-05-04 00:16 30.06499 -70.83107 33113 ft 569 kts 58°
2026-05-04 00:16 30.10636 -70.75302 33122 ft 570 kts 58°
2026-05-04 00:17 30.14779 -70.67473 33124 ft 571 kts 58°
2026-05-04 00:17 30.18898 -70.59675 33124 ft 572 kts 58°
2026-05-04 00:18 30.23039 -70.51818 33113 ft 572 kts 58°
2026-05-04 00:18 30.27174 -70.43957 33123 ft 571 kts 58°
2026-05-04 00:19 30.31308 -70.36082 33114 ft 572 kts 58°
2026-05-04 00:19 30.35434 -70.28206 33128 ft 572 kts 58°
2026-05-04 00:20 30.39560 -70.20315 33130 ft 573 kts 58°
2026-05-04 00:20 30.43678 -70.12425 33122 ft 572 kts 58°
2026-05-04 00:21 30.47789 -70.04527 33117 ft 572 kts 58°
2026-05-04 00:21 30.51894 -69.96624 33119 ft 573 kts 58°
2026-05-04 00:22 30.55975 -69.88753 33127 ft 573 kts 58°
2026-05-04 00:22 30.60082 -69.80818 33115 ft 573 kts 58°
2026-05-04 00:23 30.64184 -69.72874 33116 ft 573 kts 58°
2026-05-04 00:23 30.68271 -69.64942 33118 ft 572 kts 59°
2026-05-04 00:24 30.72361 -69.56988 33130 ft 574 kts 58°
2026-05-04 00:24 30.76460 -69.49004 33110 ft 575 kts 58°
2026-05-04 00:25 30.80553 -69.41012 33118 ft 575 kts 58°
2026-05-04 00:25 30.83950 -69.34367 33124 ft 575 kts 58°
2026-05-04 00:26 30.88698 -69.25060 33124 ft 575 kts 58°
2026-05-04 00:26 30.92778 -69.17047 33112 ft 576 kts 58°
2026-05-04 00:27 30.96198 -69.10322 33119 ft 576 kts 58°
2026-05-04 00:27 31.00272 -69.02295 33121 ft 575 kts 59°
2026-05-04 00:28 31.04341 -68.94258 33122 ft 575 kts 59°
2026-05-04 00:28 31.08399 -68.86226 33119 ft 575 kts 59°
2026-05-04 00:29 31.12455 -68.78183 33133 ft 575 kts 58°
2026-05-04 00:29 31.16509 -68.70124 33120 ft 576 kts 59°
2026-05-04 00:30 31.20535 -68.62107 33121 ft 576 kts 59°
2026-05-04 00:30 31.24588 -68.54017 33120 ft 576 kts 59°
2026-05-04 00:31 31.28634 -68.45925 33110 ft 576 kts 59°
2026-05-04 00:31 31.32675 -68.37824 33122 ft 577 kts 59°
2026-05-04 00:32 31.36718 -68.29703 33125 ft 578 kts 59°
2026-05-04 00:32 31.40740 -68.21614 33121 ft 579 kts 59°
2026-05-04 00:33 31.46847 -68.09417 33111 ft 578 kts 58°
2026-05-04 00:34 31.50944 -68.01327 33118 ft 577 kts 57°
2026-05-04 00:34 31.55203 -67.93358 33116 ft 576 kts 56°
2026-05-04 00:35 31.59482 -67.85423 33117 ft 576 kts 56°
2026-05-04 00:35 31.63729 -67.77460 33119 ft 576 kts 57°
2026-05-04 00:36 31.67954 -67.69467 33137 ft 576 kts 57°
2026-05-04 00:36 31.72178 -67.61448 33122 ft 578 kts 57°
2026-05-04 00:37 31.76408 -67.53408 33099 ft 579 kts 57°
2026-05-04 00:37 31.80606 -67.45415 33109 ft 578 kts 57°
2026-05-04 00:38 31.84827 -67.37367 33110 ft 577 kts 57°
2026-05-04 00:38 31.89043 -67.29310 33104 ft 579 kts 57°
2026-05-04 00:39 31.93264 -67.21223 33084 ft 580 kts 57°
2026-05-04 00:39 31.97487 -67.13116 33112 ft 580 kts 57°
2026-05-04 00:40 32.01697 -67.05016 33104 ft 580 kts 57°
2026-05-04 00:40 32.05908 -66.96898 33114 ft 580 kts 57°
2026-05-04 00:41 32.10088 -66.88823 33102 ft 581 kts 57°
2026-05-04 00:41 32.14291 -66.80685 33104 ft 581 kts 57°
2026-05-04 00:42 32.18491 -66.72535 33115 ft 581 kts 57°
2026-05-04 00:42 32.22689 -66.64372 33104 ft 581 kts 57°
2026-05-04 00:43 32.26889 -66.56187 33084 ft 583 kts 57°
2026-05-04 00:43 32.31085 -66.47992 33103 ft 583 kts 57°
2026-05-04 00:44 32.35278 -66.39783 33103 ft 582 kts 57°
2026-05-04 00:44 32.39459 -66.31582 33097 ft 582 kts 57°
2026-05-04 00:45 32.43642 -66.23359 33080 ft 584 kts 57°
2026-05-04 00:45 32.47830 -66.15108 33098 ft 585 kts 57°
2026-05-04 00:46 32.52024 -66.06826 33097 ft 586 kts 57°
2026-05-04 00:46 32.56179 -65.98603 33097 ft 586 kts 58°
2026-05-04 00:47 32.60361 -65.90306 33104 ft 587 kts 57°
2026-05-04 00:47 32.64546 -65.81987 33101 ft 588 kts 57°
2026-05-04 00:48 32.68739 -65.73634 33096 ft 589 kts 57°
2026-05-04 00:48 32.72925 -65.65275 33097 ft 589 kts 58°
2026-05-04 00:49 32.77103 -65.56913 33108 ft 588 kts 58°
2026-05-04 00:49 32.81275 -65.48542 33093 ft 588 kts 58°
2026-05-04 00:50 32.85437 -65.40173 33092 ft 588 kts 58°
2026-05-04 00:50 32.89595 -65.31796 33093 ft 588 kts 58°
2026-05-04 00:51 32.93741 -65.23420 33119 ft 587 kts 58°
2026-05-04 00:51 32.97865 -65.15070 33097 ft 589 kts 57°
2026-05-04 00:52 33.02021 -65.06641 33087 ft 591 kts 58°
2026-05-04 00:52 33.06181 -64.98182 33085 ft 592 kts 58°
2026-05-04 00:53 33.10332 -64.89718 33080 ft 590 kts 58°
2026-05-04 00:53 33.14480 -64.81243 33085 ft 592 kts 57°
2026-05-04 00:54 33.18630 -64.72745 33085 ft 594 kts 57°
2026-05-04 00:54 33.22790 -64.64205 33083 ft 595 kts 57°
2026-05-04 00:55 33.26951 -64.55643 33079 ft 596 kts 57°
2026-05-04 00:55 33.31089 -64.47107 33076 ft 597 kts 57°
2026-05-04 00:56 33.35247 -64.38512 33072 ft 597 kts 58°
2026-05-04 00:56 33.39395 -64.29917 33072 ft 594 kts 58°
2026-05-04 00:57 33.43510 -64.21365 33102 ft 592 kts 58°
2026-05-04 00:57 33.47618 -64.12811 33078 ft 592 kts 57°
2026-05-04 00:58 33.51729 -64.04234 33043 ft 594 kts 58°
2026-05-04 00:58 33.55831 -63.95652 33070 ft 593 kts 58°
2026-05-04 00:59 33.59903 -63.87110 33085 ft 594 kts 58°
2026-05-04 00:59 33.64003 -63.78492 33065 ft 595 kts 57°
2026-05-04 01:00 33.68103 -63.69855 33055 ft 596 kts 58°
2026-05-04 01:00 33.72201 -63.61194 33063 ft 596 kts 58°
2026-05-04 01:01 33.76290 -63.52536 33098 ft 596 kts 58°
2026-05-04 01:01 33.80381 -63.43853 33061 ft 597 kts 57°
2026-05-04 01:02 33.84468 -63.35158 33052 ft 597 kts 58°
2026-05-04 01:02 33.88546 -63.26458 33054 ft 597 kts 58°
2026-05-04 01:03 33.92590 -63.17811 33090 ft 597 kts 57°
2026-05-04 01:03 33.96663 -63.09081 33040 ft 597 kts 58°
2026-05-04 01:04 34.00723 -63.00354 33055 ft 597 kts 58°
2026-05-04 01:04 34.04773 -62.91629 33055 ft 597 kts 58°
2026-05-04 01:05 34.08821 -62.82889 33085 ft 597 kts 58°
2026-05-04 01:05 34.12867 -62.74129 33046 ft 597 kts 58°
2026-05-04 01:06 34.16902 -62.65370 33045 ft 596 kts 58°
2026-05-04 01:06 34.20922 -62.56623 33045 ft 596 kts 58°
2026-05-04 01:07 34.24934 -62.47871 33050 ft 596 kts 58°
2026-05-04 01:07 34.28944 -62.39102 33043 ft 596 kts 58°
2026-05-04 01:08 34.32945 -62.30330 33034 ft 595 kts 58°
2026-05-04 01:08 34.36938 -62.21552 33004 ft 595 kts 58°
2026-05-04 01:09 34.40785 -62.12681 33036 ft 597 kts 64°
2026-05-04 01:09 34.43649 -62.03307 33037 ft 597 kts 71°
2026-05-04 01:10 34.46291 -61.93760 33033 ft 598 kts 71°
2026-05-04 01:10 34.48963 -61.84239 33027 ft 596 kts 70°
2026-05-04 01:11 34.51679 -61.74726 33050 ft 597 kts 70°
2026-05-04 01:11 34.54402 -61.65207 33032 ft 597 kts 70°
2026-05-04 01:12 34.57112 -61.55677 33024 ft 598 kts 70°
2026-05-04 01:12 34.59811 -61.46136 33019 ft 597 kts 70°
2026-05-04 01:13 34.62499 -61.36596 33059 ft 597 kts 70°
2026-05-04 01:13 34.65184 -61.27036 33012 ft 597 kts 70°
2026-05-04 01:14 34.67839 -61.17552 33014 ft 596 kts 70°
2026-05-04 01:14 34.70501 -61.08014 33015 ft 596 kts 70°
2026-05-04 01:15 34.73151 -60.98482 33008 ft 594 kts 70°
2026-05-04 01:15 34.75788 -60.88965 33009 ft 593 kts 71°
2026-05-04 01:16 34.78412 -60.79464 33007 ft 592 kts 71°
2026-05-04 01:16 34.81025 -60.69971 33007 ft 590 kts 71°
2026-05-04 01:17 34.83184 -60.62100 33009 ft 589 kts 71°
2026-05-04 01:17 34.86191 -60.51100 33030 ft 588 kts 71°
2026-05-04 01:18 34.88350 -60.43177 32993 ft 588 kts 71°
2026-05-04 01:18 34.90917 -60.33722 33005 ft 587 kts 71°
2026-05-04 01:19 34.93456 -60.24341 33010 ft 586 kts 71°
2026-05-04 01:19 34.96003 -60.14893 32987 ft 585 kts 71°
2026-05-04 01:20 34.98534 -60.05480 33006 ft 584 kts 71°
2026-05-04 01:20 35.01563 -59.96322 32999 ft 580 kts 60°
2026-05-04 01:21 35.05540 -59.87784 32978 ft 578 kts 57°
2026-05-04 01:21 35.09558 -59.79311 32995 ft 576 kts 57°
2026-05-04 01:22 35.13524 -59.70801 32996 ft 577 kts 58°
2026-05-04 01:22 35.17455 -59.62249 32996 ft 577 kts 58°
2026-05-04 01:23 35.21374 -59.53685 32991 ft 576 kts 58°
2026-05-04 01:23 35.25285 -59.45131 33001 ft 576 kts 58°
2026-05-04 01:24 35.29198 -59.36563 32990 ft 577 kts 58°
2026-05-04 01:24 35.33101 -59.27996 32979 ft 576 kts 59°
2026-05-04 01:25 35.36991 -59.19433 32983 ft 574 kts 59°
2026-05-04 01:25 35.40841 -59.10938 32988 ft 574 kts 59°
2026-05-04 01:26 35.44708 -59.02383 32969 ft 573 kts 59°
2026-05-04 01:26 35.48561 -58.93836 32979 ft 571 kts 59°
2026-05-04 01:27 35.52399 -58.85302 32989 ft 571 kts 59°
2026-05-04 01:27 35.56237 -58.76748 32981 ft 572 kts 59°
2026-05-04 01:28 35.60070 -58.68183 32977 ft 572 kts 59°
2026-05-04 01:28 35.63900 -58.59601 33019 ft 573 kts 59°
2026-05-04 01:29 35.67739 -58.50980 32986 ft 575 kts 60°
2026-05-04 01:29 35.71544 -58.42409 32976 ft 573 kts 60°
2026-05-04 01:30 35.75360 -58.33794 32973 ft 572 kts 60°
2026-05-04 01:30 35.79165 -58.25186 32979 ft 572 kts 60°
2026-05-04 01:31 35.82956 -58.16580 32962 ft 570 kts 60°
2026-05-04 01:31 35.86730 -58.07993 32967 ft 569 kts 60°
2026-05-04 01:32 35.90489 -57.99419 32996 ft 568 kts 61°
2026-05-04 01:32 35.94246 -57.90829 32949 ft 568 kts 61°
2026-05-04 01:33 35.97986 -57.82252 32965 ft 567 kts 61°
2026-05-04 01:33 36.01717 -57.73675 32966 ft 566 kts 61°
2026-05-04 01:34 36.05434 -57.65109 32942 ft 566 kts 61°
2026-05-04 01:34 36.09141 -57.56543 32973 ft 564 kts 61°
2026-05-04 01:35 36.12833 -57.47992 32970 ft 563 kts 61°
2026-05-04 01:35 36.16518 -57.39433 32975 ft 564 kts 62°
2026-05-04 01:36 36.20196 -57.30868 32973 ft 563 kts 62°
2026-05-04 01:36 36.23864 -57.22303 32976 ft 562 kts 62°
2026-05-04 01:37 36.27499 -57.13797 32992 ft 562 kts 62°
2026-05-04 01:37 36.31153 -57.05220 32972 ft 562 kts 62°
2026-05-04 01:38 36.34804 -56.96630 32969 ft 562 kts 62°
2026-05-04 01:38 36.38443 -56.88044 32974 ft 562 kts 62°
2026-05-04 01:39 36.42072 -56.79460 32963 ft 562 kts 62°
2026-05-04 01:39 36.45697 -56.70862 32977 ft 561 kts 62°
2026-05-04 01:40 36.49309 -56.62273 32974 ft 560 kts 62°
2026-05-04 01:40 36.52887 -56.53744 32962 ft 560 kts 62°
2026-05-04 01:41 36.56477 -56.45162 32975 ft 559 kts 63°
2026-05-04 01:41 36.60056 -56.36585 32974 ft 558 kts 63°
2026-05-04 01:42 36.63624 -56.28011 32974 ft 557 kts 63°
2026-05-04 01:42 36.67183 -56.19436 32971 ft 556 kts 63°
2026-05-04 01:43 36.70728 -56.10871 32974 ft 556 kts 63°
2026-05-04 01:43 36.74267 -56.02297 32995 ft 556 kts 63°
2026-05-04 01:44 36.77802 -55.93714 32975 ft 557 kts 63°
2026-05-04 01:44 36.81336 -55.85107 32973 ft 558 kts 63°
2026-05-04 01:45 36.84868 -55.76480 32963 ft 558 kts 63°
2026-05-04 01:45 36.90133 -55.63584 32971 ft 558 kts 64°
2026-05-04 01:46 36.93650 -55.54938 32978 ft 557 kts 64°
2026-05-04 01:46 36.97153 -55.46304 32996 ft 556 kts 64°
2026-05-04 01:47 37.00643 -55.37679 32973 ft 556 kts 64°
2026-05-04 01:47 37.04125 -55.29048 32978 ft 555 kts 64°
2026-05-04 01:48 37.07596 -55.20420 32996 ft 554 kts 63°
2026-05-04 01:48 37.11065 -55.11779 32984 ft 554 kts 64°
2026-05-04 01:49 37.14521 -55.03144 32986 ft 554 kts 64°
2026-05-04 01:49 37.17945 -54.94562 32991 ft 553 kts 63°
2026-05-04 01:50 37.21385 -54.85923 32981 ft 553 kts 64°
2026-05-04 01:50 37.24812 -54.77291 32989 ft 552 kts 64°
2026-05-04 01:51 37.28231 -54.68656 32992 ft 551 kts 63°
2026-05-04 01:51 37.31636 -54.60031 32994 ft 551 kts 64°
2026-05-04 01:52 37.35037 -54.51392 32994 ft 551 kts 64°
2026-05-04 01:52 37.38429 -54.42752 32994 ft 551 kts 64°
2026-05-04 01:53 37.41791 -54.34167 33004 ft 551 kts 64°
2026-05-04 01:53 37.45174 -54.25504 32999 ft 551 kts 64°
2026-05-04 01:54 37.48545 -54.16844 32999 ft 550 kts 64°
2026-05-04 01:54 37.51907 -54.08188 33006 ft 550 kts 64°
2026-05-04 01:55 37.55258 -53.99535 32991 ft 549 kts 64°
2026-05-04 01:55 37.58573 -53.90947 33003 ft 547 kts 64°
2026-05-04 01:56 37.61897 -53.82319 33019 ft 547 kts 64°
2026-05-04 01:56 37.65215 -53.73676 32994 ft 547 kts 64°
2026-05-04 01:57 37.68525 -53.65032 32999 ft 546 kts 64°
2026-05-04 01:57 37.71821 -53.56403 33011 ft 546 kts 64°
2026-05-04 01:58 37.75113 -53.47758 33004 ft 546 kts 64°
2026-05-04 01:58 37.78402 -53.39097 33009 ft 547 kts 64°
2026-05-04 01:59 37.81690 -53.30413 33024 ft 548 kts 64°
2026-05-04 01:59 37.84983 -53.21692 33018 ft 549 kts 64°
2026-05-04 02:00 37.88263 -53.12981 33015 ft 548 kts 64°
2026-05-04 02:00 37.91531 -53.04277 33025 ft 547 kts 65°
2026-05-04 02:01 37.94792 -52.95565 33016 ft 546 kts 64°
2026-05-04 02:01 37.98033 -52.86885 33011 ft 544 kts 64°
2026-05-04 02:02 38.01245 -52.78257 33019 ft 544 kts 65°
2026-05-04 02:02 38.04465 -52.69581 33016 ft 543 kts 64°
2026-05-04 02:03 38.07677 -52.60902 33020 ft 543 kts 64°
2026-05-04 02:03 38.10887 -52.52207 33012 ft 544 kts 64°
2026-05-04 02:04 38.13550 -52.44972 33023 ft 544 kts 64°
2026-05-04 02:04 38.16749 -52.36259 33026 ft 545 kts 64°
2026-05-04 02:05 38.19948 -52.27521 33021 ft 545 kts 64°
2026-05-04 02:05 38.23139 -52.18779 33030 ft 545 kts 64°
2026-05-04 02:06 38.26324 -52.10026 33030 ft 544 kts 64°
2026-05-04 02:06 38.29500 -52.01274 33031 ft 544 kts 64°
2026-05-04 02:07 38.32668 -51.92519 33023 ft 544 kts 64°
2026-05-04 02:07 38.35824 -51.83770 33036 ft 543 kts 64°
2026-05-04 02:08 38.38970 -51.75024 33039 ft 543 kts 64°
2026-05-04 02:08 38.42111 -51.66267 33037 ft 543 kts 64°
2026-05-04 02:09 38.45221 -51.57571 33048 ft 543 kts 64°
2026-05-04 02:09 38.48346 -51.48806 33043 ft 542 kts 64°
2026-05-04 02:10 38.51464 -51.40034 33039 ft 542 kts 64°
2026-05-04 02:10 38.54577 -51.31251 33049 ft 542 kts 64°
2026-05-04 02:11 38.57676 -51.22483 33048 ft 541 kts 64°
2026-05-04 02:11 38.60768 -51.13708 33045 ft 541 kts 64°
2026-05-04 02:12 38.63848 -51.04939 33055 ft 540 kts 64°
2026-05-04 02:12 38.66916 -50.96179 33047 ft 539 kts 64°
2026-05-04 02:13 38.69971 -50.87432 33044 ft 538 kts 64°
2026-05-04 02:13 38.72994 -50.78749 33049 ft 537 kts 64°
2026-05-04 02:14 38.76027 -50.70011 33047 ft 536 kts 64°
2026-05-04 02:14 38.79049 -50.61280 33055 ft 535 kts 64°
2026-05-04 02:15 38.82065 -50.52539 33059 ft 535 kts 64°
2026-05-04 02:15 38.85073 -50.43795 33056 ft 535 kts 64°
2026-05-04 02:16 38.88055 -50.35099 33058 ft 535 kts 64°
2026-05-04 02:16 38.91048 -50.26347 33062 ft 535 kts 64°
2026-05-04 02:17 38.94033 -50.17588 33058 ft 535 kts 64°
2026-05-04 02:17 38.97007 -50.08837 33063 ft 534 kts 65°
2026-05-04 02:18 38.99971 -50.00091 33067 ft 534 kts 64°
2026-05-04 02:18 39.03019 -49.91384 33061 ft 533 kts 63°
2026-05-04 02:19 39.06134 -49.82736 33067 ft 532 kts 63°
2026-05-04 02:19 39.09237 -49.74083 33072 ft 532 kts 63°
2026-05-04 02:20 39.12317 -49.65413 33074 ft 533 kts 63°
2026-05-04 02:20 39.15385 -49.56724 33074 ft 533 kts 63°
2026-05-04 02:21 39.18448 -49.48021 33082 ft 533 kts 63°
2026-05-04 02:21 39.21486 -49.39367 33077 ft 533 kts 63°
2026-05-04 02:22 39.24536 -49.30653 33077 ft 533 kts 63°
2026-05-04 02:22 39.27577 -49.21944 33087 ft 532 kts 63°
2026-05-04 02:23 39.30611 -49.13223 33080 ft 532 kts 63°
2026-05-04 02:23 39.33639 -49.04498 33082 ft 532 kts 63°
2026-05-04 02:24 39.36653 -48.95784 33093 ft 530 kts 63°
2026-05-04 02:24 39.39654 -48.87082 33086 ft 529 kts 63°
2026-05-04 02:25 39.42641 -48.78394 33082 ft 528 kts 63°
2026-05-04 02:25 39.45614 -48.69719 33099 ft 527 kts 63°
2026-05-04 02:26 39.48560 -48.61100 33097 ft 527 kts 63°
2026-05-04 02:26 39.51520 -48.52414 33091 ft 527 kts 63°
2026-05-04 02:27 39.54474 -48.43720 33107 ft 527 kts 63°
2026-05-04 02:27 39.57420 -48.35021 33100 ft 527 kts 63°
2026-05-04 02:28 39.60362 -48.26307 33098 ft 527 kts 63°
2026-05-04 02:28 39.63296 -48.17591 33111 ft 527 kts 64°
2026-05-04 02:29 39.66222 -48.08870 33101 ft 526 kts 64°
2026-05-04 02:29 39.69138 -48.00154 33101 ft 526 kts 64°
2026-05-04 02:30 39.72025 -47.91496 33117 ft 525 kts 64°
2026-05-04 02:30 39.74921 -47.82786 33106 ft 525 kts 64°
2026-05-04 02:31 39.77807 -47.74080 33098 ft 524 kts 64°
2026-05-04 02:31 39.80685 -47.65370 33105 ft 523 kts 64°
2026-05-04 02:32 39.83551 -47.56667 33102 ft 523 kts 64°
2026-05-04 02:32 39.86413 -47.47953 33124 ft 523 kts 64°
2026-05-04 02:33 39.89267 -47.39237 33121 ft 523 kts 64°
2026-05-04 02:33 39.92114 -47.30513 33109 ft 524 kts 64°
2026-05-04 02:34 39.94957 -47.21774 33115 ft 524 kts 64°
2026-05-04 02:34 39.97778 -47.13076 33117 ft 524 kts 64°
2026-05-04 02:35 40.00610 -47.04315 33118 ft 524 kts 64°
2026-05-04 02:35 40.03437 -46.95542 33117 ft 524 kts 64°
2026-05-04 02:36 40.06258 -46.86761 33119 ft 524 kts 64°
2026-05-04 02:36 40.09074 -46.77968 33130 ft 524 kts 64°
2026-05-04 02:37 40.11878 -46.69183 33124 ft 524 kts 64°
2026-05-04 02:37 40.14674 -46.60396 33123 ft 523 kts 64°
2026-05-04 02:38 40.17459 -46.51613 33131 ft 522 kts 64°
2026-05-04 02:38 40.20232 -46.42843 33125 ft 521 kts 64°
2026-05-04 02:39 40.22979 -46.34126 33129 ft 520 kts 64°
2026-05-04 02:39 40.25730 -46.25371 33150 ft 520 kts 64°
2026-05-04 02:40 40.28476 -46.16602 33135 ft 519 kts 64°
2026-05-04 02:40 40.31210 -46.07844 33135 ft 519 kts 64°
2026-05-04 02:41 40.33933 -45.99090 33142 ft 519 kts 64°
2026-05-04 02:41 40.36649 -45.90332 33150 ft 519 kts 64°
2026-05-04 02:42 40.39361 -45.81559 33151 ft 518 kts 64°
2026-05-04 02:42 40.42047 -45.72840 33152 ft 518 kts 64°
2026-05-04 02:43 40.44745 -45.64054 33164 ft 518 kts 64°
2026-05-04 02:43 40.47432 -45.55278 33157 ft 518 kts 64°
2026-05-04 02:44 40.50113 -45.46491 33163 ft 517 kts 64°
2026-05-04 02:44 40.52782 -45.37711 33175 ft 517 kts 64°
2026-05-04 02:45 40.55430 -45.28979 33167 ft 517 kts 64°
2026-05-04 02:45 40.58088 -45.20180 33172 ft 517 kts 64°
2026-05-04 02:46 40.60738 -45.11380 33191 ft 518 kts 64°
2026-05-04 02:46 40.63389 -45.02547 33177 ft 518 kts 64°
2026-05-04 02:47 40.66029 -44.93721 33182 ft 518 kts 64°
2026-05-04 02:47 40.68667 -44.84873 33186 ft 519 kts 64°
2026-05-04 02:48 40.71296 -44.76023 33188 ft 519 kts 64°
2026-05-04 02:48 40.73920 -44.67162 33184 ft 518 kts 64°
2026-05-04 02:49 40.76535 -44.58300 33193 ft 518 kts 64°
2026-05-04 02:49 40.79123 -44.49502 33193 ft 518 kts 64°
2026-05-04 02:50 40.81722 -44.40638 33201 ft 518 kts 64°
2026-05-04 02:50 40.84313 -44.31771 33201 ft 517 kts 64°
2026-05-04 02:51 40.86896 -44.22898 33199 ft 517 kts 64°
2026-05-04 02:51 40.89039 -44.15514 33211 ft 517 kts 64°
2026-05-04 02:52 40.91611 -44.06626 33203 ft 517 kts 64°
2026-05-04 02:52 40.94176 -43.97729 33205 ft 518 kts 64°
2026-05-04 02:53 40.96736 -43.88821 33222 ft 518 kts 64°
2026-05-04 02:53 40.99290 -43.79901 33212 ft 517 kts 64°
2026-05-04 02:54 41.01832 -43.70994 33222 ft 517 kts 64°
2026-05-04 02:54 41.04349 -43.62141 33232 ft 516 kts 64°
2026-05-04 02:55 41.08129 -43.48791 33217 ft 515 kts 64°
2026-05-04 02:56 41.10634 -43.39905 33223 ft 514 kts 64°
2026-05-04 02:56 41.13125 -43.31035 33235 ft 512 kts 64°
2026-05-04 02:57 41.15605 -43.22181 33228 ft 511 kts 63°
2026-05-04 02:57 41.18066 -43.13356 33220 ft 509 kts 63°
2026-05-04 02:58 41.20514 -43.04550 33249 ft 508 kts 63°
2026-05-04 02:58 41.22953 -42.95748 33238 ft 508 kts 63°
2026-05-04 02:59 41.25385 -42.86941 33239 ft 508 kts 63°
2026-05-04 02:59 41.27811 -42.78125 33240 ft 508 kts 63°
2026-05-04 03:00 41.30219 -42.69341 33244 ft 509 kts 64°
2026-05-04 03:00 41.32639 -42.60478 33249 ft 510 kts 63°
2026-05-04 03:01 41.35055 -42.51608 33250 ft 510 kts 63°
2026-05-04 03:01 41.37466 -42.42719 33250 ft 511 kts 64°
2026-05-04 03:02 41.39873 -42.33814 33250 ft 511 kts 64°
2026-05-04 03:02 41.42273 -42.24898 33249 ft 511 kts 64°
2026-05-04 03:03 41.44668 -42.15970 33251 ft 511 kts 64°
2026-05-04 03:03 41.47042 -42.07092 33254 ft 511 kts 64°
2026-05-04 03:04 41.49422 -41.98159 33261 ft 510 kts 63°
2026-05-04 03:04 41.51786 -41.89248 33259 ft 509 kts 63°
2026-05-04 03:05 41.54143 -41.80331 33268 ft 509 kts 63°
2026-05-04 03:05 41.56493 -41.71414 33262 ft 508 kts 63°
2026-05-04 03:06 41.58833 -41.62504 33267 ft 508 kts 63°
2026-05-04 03:06 41.61152 -41.53641 33284 ft 508 kts 63°
2026-05-04 03:07 41.63478 -41.44716 33264 ft 509 kts 63°
2026-05-04 03:07 41.65802 -41.35764 33269 ft 509 kts 63°
2026-05-04 03:08 41.68120 -41.26805 33272 ft 510 kts 63°
2026-05-04 03:08 41.70435 -41.17821 33273 ft 510 kts 63°
2026-05-04 03:09 41.72740 -41.08842 33272 ft 510 kts 63°
2026-05-04 03:09 41.75040 -40.99851 33277 ft 510 kts 63°
2026-05-04 03:10 41.77334 -40.90848 33296 ft 510 kts 63°
2026-05-04 03:10 41.79621 -40.81839 33284 ft 511 kts 63°
2026-05-04 03:11 41.81898 -40.72832 33285 ft 509 kts 63°
2026-05-04 03:11 41.84150 -40.63893 33276 ft 508 kts 63°
2026-05-04 03:12 41.86399 -40.54927 33292 ft 507 kts 63°
2026-05-04 03:12 41.88639 -40.45971 33285 ft 505 kts 63°
2026-05-04 03:13 41.90868 -40.37026 33287 ft 505 kts 63°
2026-05-04 03:13 41.93087 -40.28086 33318 ft 505 kts 63°
2026-05-04 03:14 41.95300 -40.19134 33298 ft 505 kts 63°
2026-05-04 03:14 41.97509 -40.10161 33285 ft 506 kts 63°
2026-05-04 03:15 41.99708 -40.01246 33297 ft 504 kts 61°
2026-05-04 03:15 42.02499 -39.92736 33303 ft 494 kts 54°
2026-05-04 03:16 42.05532 -39.84449 33303 ft 493 kts 54°
2026-05-04 03:16 42.08554 -39.76136 33293 ft 494 kts 54°
2026-05-04 03:17 42.11539 -39.67809 33316 ft 493 kts 55°
2026-05-04 03:17 42.14495 -39.59488 33296 ft 491 kts 55°
2026-05-04 03:18 42.17430 -39.51197 33300 ft 489 kts 55°
2026-05-04 03:18 42.20349 -39.42936 33303 ft 487 kts 55°
2026-05-04 03:19 42.23255 -39.34692 33307 ft 486 kts 54°
2026-05-04 03:19 42.26146 -39.26468 33301 ft 484 kts 54°
2026-05-04 03:20 42.29021 -39.18265 33307 ft 483 kts 55°
2026-05-04 03:20 42.31887 -39.10068 33327 ft 483 kts 54°
2026-05-04 03:21 42.34748 -39.01855 33305 ft 483 kts 55°
2026-05-04 03:21 42.37599 -38.93646 33316 ft 482 kts 55°
2026-05-04 03:22 42.40431 -38.85471 33317 ft 483 kts 55°
2026-05-04 03:22 42.43277 -38.77229 33323 ft 484 kts 55°
2026-05-04 03:23 42.46121 -38.68972 33315 ft 484 kts 55°
2026-05-04 03:23 42.48961 -38.60694 33319 ft 484 kts 55°
2026-05-04 03:24 42.51797 -38.52408 33335 ft 485 kts 56°
2026-05-04 03:24 42.54614 -38.44148 33330 ft 486 kts 56°
2026-05-04 03:25 42.57445 -38.35824 33324 ft 486 kts 56°
2026-05-04 03:25 42.60275 -38.27482 33326 ft 486 kts 56°
2026-05-04 03:26 42.63099 -38.19128 33329 ft 486 kts 56°
2026-05-04 03:26 42.65917 -38.10764 33332 ft 486 kts 57°
2026-05-04 03:27 42.68728 -38.02400 33329 ft 486 kts 57°
2026-05-04 03:27 42.71530 -37.94037 33342 ft 487 kts 57°
2026-05-04 03:28 42.74336 -37.85638 33340 ft 488 kts 58°
2026-05-04 03:28 42.77137 -37.77223 33336 ft 489 kts 58°
2026-05-04 03:29 42.79938 -37.68780 33336 ft 489 kts 58°
2026-05-04 03:29 42.82737 -37.60322 33335 ft 490 kts 59°
2026-05-04 03:30 42.85534 -37.51839 33331 ft 491 kts 59°
2026-05-04 03:30 42.88312 -37.43388 33349 ft 492 kts 59°
2026-05-04 03:31 42.91106 -37.34867 33349 ft 492 kts 60°
2026-05-04 03:31 42.93899 -37.26317 33343 ft 493 kts 60°
2026-05-04 03:32 42.96685 -37.17761 33344 ft 494 kts 60°
2026-05-04 03:32 42.99471 -37.09177 33347 ft 494 kts 60°
2026-05-04 03:33 43.02250 -37.00594 33360 ft 495 kts 62°
2026-05-04 03:33 43.05025 -36.91983 33357 ft 495 kts 62°
2026-05-04 03:34 43.07796 -36.83363 33350 ft 495 kts 62°
2026-05-04 03:34 43.10563 -36.74732 33363 ft 496 kts 63°
2026-05-04 03:35 43.13329 -36.66072 33360 ft 497 kts 63°
2026-05-04 03:35 43.16072 -36.57452 33355 ft 497 kts 63°
2026-05-04 03:36 43.18830 -36.48761 33360 ft 498 kts 63°
2026-05-04 03:36 43.21589 -36.40041 33360 ft 499 kts 64°
2026-05-04 03:37 43.24346 -36.31291 33358 ft 500 kts 64°
2026-05-04 03:37 43.27099 -36.22526 33364 ft 501 kts 64°
2026-05-04 03:38 43.29850 -36.13744 33373 ft 501 kts 66°
2026-05-04 03:38 43.32597 -36.04940 33370 ft 502 kts 66°
2026-05-04 03:39 43.35337 -35.96128 33371 ft 502 kts 66°
2026-05-04 03:39 43.38073 -35.87303 33373 ft 501 kts 66°
2026-05-04 03:40 43.40799 -35.78479 33373 ft 501 kts 66°
2026-05-04 03:40 43.43496 -35.69719 33371 ft 500 kts 66°
2026-05-04 03:41 43.46204 -35.60894 33372 ft 500 kts 66°
2026-05-04 03:41 43.48446 -35.53562 33387 ft 499 kts 66°
2026-05-04 03:42 43.51135 -35.44745 33379 ft 499 kts 66°
2026-05-04 03:42 43.53816 -35.35924 33383 ft 498 kts 66°
2026-05-04 03:43 43.56485 -35.27113 33387 ft 498 kts 67°
2026-05-04 03:43 43.59149 -35.18285 33391 ft 498 kts 67°
2026-05-04 03:44 43.61806 -35.09453 33391 ft 498 kts 67°
2026-05-04 03:44 43.64455 -35.00615 33383 ft 498 kts 67°
2026-05-04 03:45 43.67099 -34.91766 33399 ft 498 kts 67°
2026-05-04 03:45 43.69718 -34.82969 33395 ft 498 kts 67°
2026-05-04 03:46 43.72348 -34.74105 33394 ft 498 kts 67°
2026-05-04 03:46 43.74967 -34.65244 33394 ft 497 kts 67°
2026-05-04 03:47 43.77576 -34.56385 33405 ft 497 kts 66°
2026-05-04 03:47 43.80177 -34.47530 33397 ft 496 kts 66°
2026-05-04 03:48 43.82767 -34.38675 33399 ft 496 kts 66°
2026-05-04 03:48 43.85348 -34.29822 33415 ft 495 kts 66°
2026-05-04 03:49 43.87922 -34.20962 33391 ft 495 kts 66°
2026-05-04 03:49 43.90485 -34.12111 33407 ft 494 kts 66°
2026-05-04 03:50 43.93020 -34.03319 33412 ft 494 kts 66°
2026-05-04 03:50 43.95562 -33.94477 33410 ft 493 kts 66°
2026-05-04 03:51 43.98094 -33.85635 33407 ft 492 kts 66°
2026-05-04 03:51 44.00616 -33.76799 33412 ft 492 kts 66°
2026-05-04 03:52 44.03131 -33.67958 33412 ft 491 kts 66°
2026-05-04 03:52 44.05636 -33.59118 33411 ft 491 kts 66°
2026-05-04 03:53 44.08132 -33.50278 33412 ft 490 kts 66°
2026-05-04 03:53 44.10616 -33.41452 33412 ft 490 kts 66°
2026-05-04 03:54 44.13094 -33.32615 33430 ft 490 kts 66°
2026-05-04 03:54 44.15565 -33.23772 33422 ft 490 kts 66°
2026-05-04 03:55 44.18025 -33.14932 33424 ft 490 kts 66°
2026-05-04 03:55 44.20480 -33.06082 33424 ft 490 kts 67°
2026-05-04 03:56 44.22929 -32.97223 33435 ft 490 kts 67°
2026-05-04 03:56 44.25354 -32.88415 33425 ft 490 kts 67°
2026-05-04 03:57 44.27794 -32.79521 33425 ft 490 kts 67°
2026-05-04 03:57 44.30225 -32.70626 33430 ft 490 kts 67°
2026-05-04 03:58 44.33859 -32.57270 33428 ft 491 kts 68°
2026-05-04 03:58 44.36276 -32.48348 33428 ft 491 kts 68°
2026-05-04 03:59 44.38685 -32.39420 33430 ft 491 kts 68°
2026-05-04 03:59 44.41089 -32.30478 33432 ft 491 kts 69°
2026-05-04 04:00 44.43488 -32.21524 33431 ft 491 kts 69°
2026-05-04 04:00 44.45862 -32.12624 33430 ft 491 kts 69°
2026-05-04 04:01 44.48248 -32.03650 33424 ft 491 kts 69°
2026-05-04 04:01 44.50627 -31.94668 33431 ft 491 kts 69°
2026-05-04 04:02 44.52999 -31.85678 33427 ft 491 kts 69°
2026-05-04 04:02 44.55364 -31.76681 33426 ft 491 kts 69°
2026-05-04 04:03 44.57705 -31.67740 33426 ft 491 kts 69°
2026-05-04 04:03 44.60055 -31.58734 33434 ft 492 kts 69°
2026-05-04 04:04 44.62398 -31.49715 33433 ft 492 kts 69°
2026-05-04 04:04 44.64740 -31.40667 33436 ft 492 kts 69°
2026-05-04 04:05 44.67072 -31.31625 33433 ft 492 kts 70°
2026-05-04 04:05 44.69399 -31.22567 33433 ft 493 kts 70°
2026-05-04 04:06 44.71718 -31.13504 33436 ft 493 kts 70°
2026-05-04 04:06 44.74032 -31.04426 33440 ft 493 kts 70°
2026-05-04 04:07 44.76324 -30.95398 33433 ft 493 kts 70°
2026-05-04 04:07 44.78627 -30.86292 33433 ft 494 kts 70°
2026-05-04 04:08 44.80922 -30.77180 33434 ft 494 kts 70°
2026-05-04 04:08 44.83213 -30.68048 33445 ft 494 kts 70°
2026-05-04 04:09 44.85496 -30.58912 33440 ft 495 kts 70°
2026-05-04 04:09 44.87776 -30.49753 33433 ft 495 kts 70°
2026-05-04 04:10 44.90050 -30.40582 33436 ft 495 kts 70°
2026-05-04 04:10 44.92319 -30.31392 33435 ft 496 kts 70°
2026-05-04 04:11 44.94583 -30.22185 33443 ft 496 kts 70°
2026-05-04 04:11 44.96842 -30.12962 33435 ft 497 kts 71°
2026-05-04 04:12 44.99095 -30.03729 33434 ft 497 kts 71°
2026-05-04 04:12 45.00923 -29.94381 33443 ft 497 kts 78°
2026-05-04 04:13 45.02274 -29.84786 33433 ft 498 kts 79°
2026-05-04 04:13 45.03611 -29.75167 33428 ft 499 kts 78°
2026-05-04 04:14 45.04973 -29.65534 33434 ft 499 kts 78°
2026-05-04 04:14 45.06344 -29.55896 33430 ft 500 kts 78°
2026-05-04 04:15 45.07713 -29.46234 33435 ft 501 kts 78°
2026-05-04 04:15 45.09076 -29.36548 33429 ft 502 kts 78°
2026-05-04 04:16 45.10429 -29.26856 33429 ft 502 kts 78°
2026-05-04 04:16 45.11766 -29.17214 33430 ft 503 kts 78°
2026-05-04 04:17 45.13107 -29.07481 33433 ft 503 kts 78°
2026-05-04 04:17 45.14439 -28.97752 33428 ft 503 kts 78°
2026-05-04 04:18 45.15762 -28.88018 33429 ft 503 kts 78°
2026-05-04 04:18 45.17078 -28.78274 33427 ft 504 kts 78°
2026-05-04 04:19 45.18390 -28.68497 33428 ft 504 kts 78°
2026-05-04 04:19 45.19684 -28.58783 33426 ft 505 kts 79°
2026-05-04 04:20 45.20979 -28.48993 33424 ft 505 kts 79°
2026-05-04 04:20 45.22267 -28.39188 33423 ft 505 kts 79°
2026-05-04 04:21 45.23546 -28.29387 33425 ft 505 kts 79°
2026-05-04 04:21 45.24816 -28.19589 33426 ft 505 kts 79°
2026-05-04 04:22 45.26076 -28.09790 33432 ft 505 kts 79°
2026-05-04 04:22 45.27330 -27.99974 33424 ft 505 kts 79°
2026-05-04 04:23 45.28575 -27.90156 33418 ft 506 kts 79°
2026-05-04 04:23 45.29815 -27.80307 33419 ft 506 kts 79°
2026-05-04 04:24 45.31047 -27.70456 33425 ft 506 kts 79°
2026-05-04 04:24 45.32263 -27.60657 33410 ft 507 kts 79°
2026-05-04 04:25 45.33480 -27.50779 33413 ft 508 kts 79°
2026-05-04 04:25 45.34689 -27.40884 33413 ft 508 kts 79°
2026-05-04 04:26 45.35891 -27.30982 33419 ft 508 kts 79°
2026-05-04 04:26 45.37085 -27.21060 33409 ft 509 kts 79°
2026-05-04 04:27 45.38273 -27.11125 33408 ft 510 kts 79°
2026-05-04 04:27 45.39453 -27.01176 33404 ft 510 kts 79°
2026-05-04 04:28 45.40426 -26.92912 33417 ft 510 kts 79°
2026-05-04 04:28 45.41591 -26.82952 33403 ft 510 kts 79°
2026-05-04 04:29 45.42747 -26.72982 33405 ft 511 kts 79°
2026-05-04 04:29 45.43897 -26.62993 33391 ft 511 kts 79°
2026-05-04 04:30 45.45037 -26.53000 33412 ft 511 kts 79°
2026-05-04 04:30 45.46172 -26.42984 33405 ft 512 kts 79°
2026-05-04 04:31 45.47298 -26.32960 33394 ft 512 kts 79°
2026-05-04 04:31 45.48407 -26.23001 33391 ft 513 kts 79°
2026-05-04 04:32 45.49517 -26.12951 33401 ft 513 kts 79°
2026-05-04 04:32 45.50618 -26.02906 33385 ft 513 kts 79°
2026-05-04 04:33 45.51710 -25.92856 33385 ft 513 kts 79°
2026-05-04 04:33 45.52793 -25.82803 33385 ft 513 kts 79°
2026-05-04 04:34 45.53867 -25.72748 33390 ft 513 kts 79°
2026-05-04 04:34 45.54934 -25.62675 33379 ft 513 kts 79°
2026-05-04 04:35 45.55991 -25.52606 33375 ft 513 kts 79°
2026-05-04 04:35 45.57039 -25.42535 33369 ft 513 kts 79°
2026-05-04 04:36 45.58072 -25.32519 33378 ft 513 kts 79°
2026-05-04 04:36 45.59103 -25.22430 33362 ft 513 kts 79°
2026-05-04 04:37 45.61135 -25.02283 33360 ft 512 kts 79°
2026-05-04 04:38 45.62138 -24.92203 33350 ft 513 kts 79°
2026-05-04 04:38 45.63132 -24.82120 33359 ft 512 kts 79°
2026-05-04 04:39 45.64111 -24.72092 33340 ft 512 kts 79°
2026-05-04 04:39 45.65087 -24.62009 33345 ft 512 kts 79°
2026-05-04 04:40 45.66053 -24.51926 33352 ft 512 kts 79°
2026-05-04 04:40 45.67011 -24.41833 33350 ft 512 kts 80°
2026-05-04 04:41 45.67960 -24.31743 33347 ft 512 kts 80°
2026-05-04 04:41 45.68901 -24.21633 33350 ft 512 kts 80°
2026-05-04 04:42 45.69831 -24.11534 33339 ft 512 kts 80°
2026-05-04 04:42 45.70754 -24.01430 33342 ft 512 kts 80°
2026-05-04 04:43 45.71666 -23.91333 33333 ft 512 kts 80°
2026-05-04 04:43 45.72569 -23.81240 33340 ft 511 kts 80°
2026-05-04 04:44 45.73458 -23.71201 33336 ft 511 kts 80°
2026-05-04 04:44 45.74341 -23.61117 33328 ft 510 kts 80°
2026-05-04 04:45 45.75215 -23.51045 33334 ft 510 kts 80°
2026-05-04 04:47 45.78202 -23.15782 33316 ft 509 kts 80°
2026-05-04 04:47 45.79029 -23.05775 33321 ft 509 kts 80°
2026-05-04 04:48 45.79851 -22.95713 33340 ft 508 kts 80°
2026-05-04 04:49 45.81870 -22.70544 33311 ft 508 kts 80°
2026-05-04 04:49 45.82661 -22.60479 33309 ft 508 kts 80°
2026-05-04 04:50 45.83442 -22.50422 33312 ft 507 kts 80°
2026-05-04 04:50 45.84215 -22.40367 33304 ft 507 kts 80°
2026-05-04 04:51 45.84978 -22.30305 33305 ft 507 kts 80°
2026-05-04 04:51 45.85729 -22.20301 33303 ft 507 kts 80°
2026-05-04 04:52 45.86474 -22.10245 33302 ft 507 kts 80°
2026-05-04 04:52 45.87212 -22.00174 33298 ft 507 kts 80°
2026-05-04 04:53 45.87940 -21.90109 33294 ft 506 kts 80°
2026-05-04 04:53 45.88657 -21.80060 33289 ft 506 kts 80°
2026-05-04 04:54 45.89367 -21.69995 33295 ft 507 kts 80°
2026-05-04 04:54 45.90064 -21.59994 33296 ft 507 kts 80°
2026-05-04 04:55 45.90761 -21.49854 33293 ft 507 kts 80°
2026-05-04 04:55 45.91445 -21.39779 33292 ft 507 kts 80°
2026-05-04 04:56 45.92116 -21.29752 33297 ft 507 kts 80°
2026-05-04 04:56 45.92782 -21.19666 33288 ft 507 kts 80°
2026-05-04 04:57 45.93440 -21.09576 33288 ft 507 kts 80°
2026-05-04 04:57 45.94088 -20.99493 33288 ft 507 kts 80°
2026-05-04 04:58 45.94728 -20.89398 33289 ft 507 kts 80°
2026-05-04 04:58 45.95359 -20.79296 33282 ft 507 kts 80°
2026-05-04 04:59 45.95981 -20.69197 33284 ft 508 kts 80°
2026-05-04 04:59 45.96594 -20.59086 33280 ft 508 kts 80°
2026-05-04 05:00 45.97199 -20.48972 33279 ft 508 kts 80°
2026-05-04 05:01 45.98090 -20.33785 33284 ft 508 kts 81°
2026-05-04 05:01 45.98669 -20.23726 33277 ft 508 kts 81°
2026-05-04 05:02 45.99244 -20.13593 33282 ft 509 kts 80°
2026-05-04 05:02 45.99845 -20.03444 33274 ft 507 kts 78°
2026-05-04 05:03 46.01315 -19.93617 33269 ft 498 kts 66°
2026-05-04 05:04 46.05663 -19.74692 33281 ft 498 kts 67°
2026-05-04 05:04 46.07794 -19.65198 33272 ft 497 kts 67°
2026-05-04 05:06 46.16086 -19.27500 33265 ft 487 kts 68°
2026-05-04 05:07 46.18107 -19.18209 33272 ft 483 kts 68°
2026-05-04 05:07 46.20113 -19.08961 33256 ft 482 kts 69°
2026-05-04 05:09 46.29050 -18.67228 33269 ft 486 kts 68°
2026-05-04 05:10 46.31026 -18.57881 33252 ft 486 kts 68°
2026-05-04 05:10 46.32992 -18.48533 33246 ft 485 kts 68°
2026-05-04 05:11 46.34947 -18.39200 33244 ft 485 kts 69°
2026-05-04 05:11 46.36894 -18.29863 33258 ft 484 kts 68°
2026-05-04 05:12 46.38831 -18.20531 33243 ft 483 kts 68°
2026-05-04 05:12 46.40755 -18.11215 33235 ft 482 kts 68°
2026-05-04 05:13 46.42658 -18.01962 33237 ft 482 kts 68°
2026-05-04 05:13 46.44564 -17.92653 33252 ft 482 kts 68°
2026-05-04 05:14 46.46463 -17.83336 33240 ft 481 kts 68°
2026-05-04 05:14 46.48347 -17.74040 33234 ft 480 kts 69°
2026-05-04 05:15 46.50225 -17.64740 33216 ft 480 kts 69°
2026-05-04 05:15 46.52095 -17.55431 33238 ft 480 kts 68°
2026-05-04 05:16 46.53959 -17.46112 33226 ft 480 kts 68°
2026-05-04 05:16 46.55500 -17.38367 33220 ft 480 kts 68°
2026-05-04 05:17 46.57346 -17.29053 33217 ft 479 kts 69°
2026-05-04 05:17 46.59184 -17.19735 33248 ft 479 kts 69°
2026-05-04 05:18 46.61014 -17.10413 33218 ft 479 kts 69°
2026-05-04 05:18 46.62833 -17.01101 33205 ft 478 kts 69°
2026-05-04 05:19 46.64632 -16.91851 33207 ft 477 kts 69°
2026-05-04 05:19 46.66433 -16.82539 33204 ft 477 kts 69°
2026-05-04 05:20 46.68227 -16.73227 33196 ft 477 kts 69°
2026-05-04 05:20 46.70013 -16.63909 33197 ft 477 kts 69°
2026-05-04 05:21 46.71780 -16.54643 33196 ft 478 kts 69°
2026-05-04 05:21 46.73552 -16.45303 33238 ft 478 kts 69°
2026-05-04 05:22 46.75319 -16.35943 33197 ft 479 kts 69°
2026-05-04 05:22 46.77077 -16.26582 33186 ft 478 kts 69°
2026-05-04 05:23 46.78828 -16.17213 33187 ft 478 kts 69°
2026-05-04 05:23 46.80569 -16.07852 33184 ft 478 kts 69°
2026-05-04 05:24 46.82303 -15.98483 33180 ft 477 kts 69°
2026-05-04 05:24 46.84013 -15.89196 33166 ft 476 kts 69°
2026-05-04 05:25 46.85721 -15.79871 33168 ft 475 kts 69°
2026-05-04 05:25 46.87420 -15.70552 33169 ft 474 kts 70°
2026-05-04 05:26 46.89113 -15.61222 33175 ft 475 kts 70°
2026-05-04 05:26 46.90798 -15.51880 33163 ft 476 kts 70°
2026-05-04 05:28 46.97487 -15.14325 33158 ft 477 kts 70°
2026-05-04 05:29 46.99087 -15.04938 33147 ft 480 kts 74°
2026-05-04 05:29 46.99727 -14.95147 33152 ft 487 kts 84°
2026-05-04 05:31 46.97562 -14.55309 33135 ft 490 kts 90°
2026-05-04 05:32 46.97001 -14.45358 33161 ft 490 kts 90°
2026-05-04 05:33 46.96147 -14.30495 33125 ft 490 kts 90°
2026-05-04 05:33 46.95563 -14.20553 33120 ft 490 kts 90°
2026-05-04 05:34 46.94972 -14.10627 33116 ft 490 kts 90°
2026-05-04 05:34 46.94371 -14.00696 33143 ft 490 kts 90°
2026-05-04 05:35 46.93761 -13.90761 33119 ft 490 kts 91°
2026-05-04 05:35 46.93141 -13.80803 33106 ft 491 kts 91°
2026-05-04 05:36 46.92513 -13.70853 33106 ft 491 kts 91°
2026-05-04 05:36 46.91876 -13.60901 33103 ft 491 kts 91°
2026-05-04 05:37 46.91234 -13.51011 33094 ft 492 kts 91°
2026-05-04 05:37 46.90579 -13.41053 33095 ft 491 kts 91°
2026-05-04 05:38 46.89582 -13.26157 33084 ft 491 kts 91°
2026-05-04 05:38 46.88907 -13.16224 33108 ft 490 kts 92°
2026-05-04 05:39 46.87879 -13.01332 33082 ft 491 kts 92°
2026-05-04 05:40 46.86829 -12.86425 33071 ft 491 kts 92°
2026-05-04 05:40 46.86118 -12.76479 33064 ft 492 kts 92°
2026-05-04 05:41 46.85402 -12.66589 33062 ft 493 kts 92°
2026-05-04 05:41 46.84671 -12.56616 33059 ft 494 kts 92°
2026-05-04 05:42 46.83932 -12.46645 33056 ft 494 kts 92°
2026-05-04 05:42 46.83183 -12.36672 33056 ft 494 kts 92°
2026-05-04 05:43 46.82425 -12.26685 33052 ft 494 kts 93°
2026-05-04 05:45 46.79309 -11.86832 33058 ft 493 kts 94°
2026-05-04 05:47 46.76057 -11.47047 33027 ft 497 kts 94°
2026-05-04 05:47 46.75218 -11.37038 33029 ft 497 kts 95°
2026-05-04 05:48 46.74367 -11.27011 33016 ft 497 kts 95°
2026-05-04 05:48 46.73511 -11.17022 33017 ft 497 kts 95°
2026-05-04 05:49 46.72642 -11.07018 33008 ft 496 kts 95°
2026-05-04 05:49 46.71769 -10.97050 33015 ft 496 kts 96°
2026-05-04 05:51 46.68203 -10.57323 32998 ft 496 kts 96°
2026-05-04 05:52 46.67285 -10.47349 32994 ft 498 kts 96°
2026-05-04 05:52 46.66355 -10.37345 32993 ft 499 kts 97°
2026-05-04 05:54 46.62545 -9.97337 32982 ft 499 kts 97°
2026-05-04 05:55 46.61571 -9.87334 32982 ft 499 kts 97°
2026-05-04 05:55 46.60588 -9.77341 32977 ft 499 kts 97°
2026-05-04 05:56 46.59597 -9.67356 32977 ft 499 kts 98°
2026-05-04 05:56 46.58598 -9.57389 32977 ft 498 kts 98°
2026-05-04 05:57 46.57592 -9.47441 32974 ft 497 kts 98°
2026-05-04 05:57 46.56577 -9.37489 32969 ft 499 kts 98°
2026-05-04 05:58 46.55551 -9.27509 32972 ft 500 kts 99°
2026-05-04 05:58 46.54515 -9.17530 32965 ft 499 kts 99°
2026-05-04 05:59 46.53473 -9.07580 32967 ft 498 kts 99°
2026-05-04 05:59 46.52425 -8.97657 32965 ft 497 kts 99°
2026-05-04 06:00 46.51377 -8.87810 32964 ft 496 kts 99°
2026-05-04 06:00 46.50321 -8.77933 32966 ft 494 kts 99°
2026-05-04 06:01 46.49916 -8.67979 32969 ft 494 kts 90°
2026-05-04 06:03 46.50056 -8.28037 32964 ft 495 kts 91°
2026-05-04 06:05 46.49008 -7.83137 32961 ft 494 kts 96°
2026-05-04 06:06 46.48359 -7.73285 32966 ft 494 kts 96°
2026-05-04 06:06 46.47720 -7.63373 32954 ft 493 kts 97°
2026-05-04 06:07 46.47084 -7.53468 32963 ft 493 kts 97°
2026-05-04 06:07 46.46442 -7.43564 32966 ft 493 kts 97°
2026-05-04 06:08 46.45902 -7.35340 32963 ft 493 kts 97°
2026-05-04 06:08 46.45243 -7.25450 32964 ft 493 kts 97°
2026-05-04 06:09 46.44575 -7.15557 32959 ft 493 kts 97°
2026-05-04 06:11 46.41815 -6.75955 32966 ft 494 kts 98°
2026-05-04 06:13 46.38914 -6.36348 32959 ft 495 kts 98°
2026-05-04 06:14 46.36254 -6.01589 32956 ft 497 kts 98°
2026-05-04 06:15 46.35473 -5.91653 32964 ft 497 kts 98°
2026-05-04 06:15 46.34684 -5.81715 32968 ft 497 kts 98°
2026-05-04 06:16 46.33886 -5.71775 32972 ft 497 kts 99°
2026-05-04 06:16 46.33083 -5.61892 32971 ft 497 kts 99°
2026-05-04 06:17 46.32268 -5.51958 32966 ft 497 kts 99°
2026-05-04 06:17 46.31444 -5.42037 32968 ft 497 kts 99°
2026-05-04 06:18 46.30611 -5.32106 32968 ft 497 kts 99°
2026-05-04 06:20 46.27196 -4.92443 32973 ft 497 kts 100°
2026-05-04 06:21 46.24993 -4.67687 32968 ft 496 kts 101°
2026-05-04 06:22 46.24097 -4.57798 32973 ft 496 kts 101°
2026-05-04 06:25 46.17596 -3.88728 32965 ft 495 kts 101°
2026-05-04 06:26 46.16641 -3.78958 32971 ft 495 kts 101°
2026-05-04 06:26 46.15666 -3.69070 32968 ft 495 kts 102°
2026-05-04 06:27 46.13217 -3.44608 32968 ft 493 kts 102°
2026-05-04 06:28 46.12221 -3.34817 32970 ft 493 kts 102°
2026-05-04 06:28 46.11216 -3.25027 32966 ft 493 kts 102°
2026-05-04 06:29 46.10204 -3.15243 32950 ft 494 kts 103°
2026-05-04 06:29 46.09182 -3.05454 32964 ft 494 kts 103°
2026-05-04 06:30 46.08152 -2.95674 32974 ft 494 kts 103°
2026-05-04 06:30 46.07120 -2.85950 32959 ft 494 kts 103°
2026-05-04 06:31 46.06073 -2.76171 32940 ft 494 kts 103°
2026-05-04 06:31 46.05018 -2.66392 32958 ft 494 kts 104°
2026-05-04 06:33 46.00714 -2.27329 32958 ft 495 kts 104°
2026-05-04 06:34 45.99614 -2.17552 32967 ft 495 kts 104°
2026-05-04 06:34 45.98504 -2.07750 32963 ft 496 kts 104°
2026-05-04 06:36 45.94016 -1.68648 32950 ft 498 kts 102°
2026-05-04 06:37 45.93757 -1.58648 32947 ft 504 kts 92°
2026-05-04 06:37 45.94044 -1.48580 32947 ft 504 kts 92°
2026-05-04 06:38 45.94314 -1.38515 32947 ft 503 kts 92°
2026-05-04 06:40 45.95113 -0.98457 32953 ft 503 kts 92°
2026-05-04 06:40 45.95289 -0.88409 32937 ft 503 kts 93°
2026-05-04 06:41 45.95458 -0.78341 32905 ft 504 kts 93°
2026-05-04 06:41 45.95617 -0.68274 32932 ft 504 kts 93°
2026-05-04 06:42 45.95767 -0.58200 32935 ft 504 kts 93°
2026-05-04 06:44 45.96280 -0.17971 32937 ft 503 kts 93°
2026-05-04 06:44 45.96385 -0.07914 32937 ft 503 kts 94°
2026-05-04 06:45 45.96482 0.02147 32934 ft 503 kts 94°
2026-05-04 06:45 45.96570 0.12209 32953 ft 504 kts 94°
2026-05-04 06:46 45.96650 0.22301 32945 ft 504 kts 94°
2026-05-04 06:46 45.96721 0.32328 32950 ft 504 kts 94°
2026-05-04 06:48 45.96915 0.72331 32957 ft 499 kts 94°
2026-05-04 06:50 45.96968 1.12166 32973 ft 497 kts 95°
2026-05-04 06:51 45.96960 1.22108 32942 ft 497 kts 95°
2026-05-04 06:51 45.96943 1.32061 32965 ft 498 kts 95°
2026-05-04 06:52 45.96917 1.41963 32969 ft 499 kts 95°
2026-05-04 06:52 45.96883 1.51954 32969 ft 500 kts 96°
2026-05-04 06:53 45.96841 1.61956 32955 ft 500 kts 96°
2026-05-04 06:53 45.96789 1.71964 32964 ft 501 kts 96°
2026-05-04 06:54 45.96732 1.81975 32975 ft 500 kts 96°
2026-05-04 06:54 45.96834 1.91978 32982 ft 501 kts 92°
2026-05-04 06:55 45.97213 2.01987 32970 ft 501 kts 92°
2026-05-04 06:55 45.97599 2.11990 32977 ft 500 kts 92°
2026-05-04 06:57 45.98910 2.51873 32993 ft 503 kts 92°
2026-05-04 06:58 45.99168 2.60307 32981 ft 504 kts 92°
2026-05-04 06:58 45.99471 2.70369 32993 ft 503 kts 92°
2026-05-04 06:59 45.99601 2.80400 32969 ft 498 kts 98°
2026-05-04 06:59 45.98620 2.90079 32989 ft 489 kts 108°
2026-05-04 07:01 45.92528 3.28275 32995 ft 492 kts 108°
2026-05-04 07:02 45.91007 3.37859 32985 ft 492 kts 108°
2026-05-04 07:02 45.89479 3.47435 32990 ft 492 kts 108°
2026-05-04 07:03 45.87942 3.57013 32990 ft 493 kts 108°
2026-05-04 07:03 45.86449 3.66607 32990 ft 493 kts 108°
2026-05-04 07:04 45.84970 3.76216 32993 ft 492 kts 108°
2026-05-04 07:04 45.83481 3.85805 32984 ft 492 kts 108°
2026-05-04 07:05 45.81990 3.95305 32969 ft 492 kts 108°
2026-05-04 07:05 45.80478 4.04875 32995 ft 492 kts 108°
2026-05-04 07:06 45.78197 4.19211 32997 ft 492 kts 108°
2026-05-04 07:07 45.76664 4.28776 33010 ft 493 kts 108°
2026-05-04 07:09 45.70446 4.67057 33016 ft 493 kts 108°
2026-05-04 07:09 45.68880 4.76555 33017 ft 494 kts 108°
2026-05-04 07:10 45.67296 4.86119 33016 ft 494 kts 108°
2026-05-04 07:12 45.60886 5.24323 33039 ft 494 kts 109°
2026-05-04 07:12 45.59262 5.33872 33047 ft 495 kts 109°
2026-05-04 07:13 45.57625 5.43439 33035 ft 496 kts 109°
2026-05-04 07:13 45.55984 5.52994 33028 ft 496 kts 109°
2026-05-04 07:14 45.51453 5.76664 33045 ft 497 kts 110°
2026-05-04 07:15 45.49624 5.86166 33020 ft 497 kts 110°
2026-05-04 07:15 45.47282 5.95365 33031 ft 491 kts 122°
2026-05-04 07:16 45.43649 6.03470 33038 ft 482 kts 134°
2026-05-04 07:16 45.39374 6.10831 33026 ft 482 kts 135°
2026-05-04 07:17 45.35108 6.18212 33022 ft 484 kts 134°
2026-05-04 07:17 45.30862 6.25634 33007 ft 484 kts 134°
2026-05-04 07:18 45.26613 6.33060 33021 ft 485 kts 134°
2026-05-04 07:18 45.22352 6.40487 33043 ft 485 kts 134°
2026-05-04 07:19 45.18091 6.47916 33056 ft 486 kts 134°
2026-05-04 07:19 45.13875 6.55403 33053 ft 488 kts 129°
2026-05-04 07:20 45.10501 6.63823 33111 ft 496 kts 118°
2026-05-04 07:20 45.08160 6.73063 33112 ft 501 kts 112°
2026-05-04 07:22 44.99393 7.10371 33118 ft 499 kts 109°
2026-05-04 07:23 44.98122 7.20056 33108 ft 505 kts 98°
2026-05-04 07:23 44.98049 7.30009 33116 ft 508 kts 91°
2026-05-04 07:24 44.98206 7.39973 33098 ft 507 kts 93°
2026-05-04 07:24 44.97869 7.49880 33109 ft 504 kts 97°
2026-05-04 07:26 44.96016 7.89368 33109 ft 504 kts 96°
2026-05-04 07:27 44.95549 7.99238 33113 ft 504 kts 96°
2026-05-04 07:27 44.95073 8.09107 33107 ft 504 kts 96°
2026-05-04 07:28 44.94587 8.18974 33118 ft 503 kts 96°
2026-05-04 07:28 44.94096 8.28818 33116 ft 503 kts 97°
2026-05-04 07:29 44.93593 8.38667 33115 ft 503 kts 97°
2026-05-04 07:29 44.93086 8.48445 33109 ft 502 kts 97°
2026-05-04 07:30 44.92569 8.58286 33119 ft 502 kts 97°
2026-05-04 07:30 44.92042 8.68124 33117 ft 503 kts 97°
2026-05-04 07:31 44.91507 8.77961 33116 ft 503 kts 97°
2026-05-04 07:33 44.89278 9.17371 33095 ft 505 kts 97°
2026-05-04 07:33 44.88699 9.27241 33108 ft 505 kts 97°
2026-05-04 07:34 44.88110 9.37123 33113 ft 506 kts 97°
2026-05-04 07:34 44.87511 9.47013 33100 ft 506 kts 97°
2026-05-04 07:35 44.86904 9.56913 33088 ft 507 kts 96°
2026-05-04 07:35 44.86291 9.66758 33106 ft 507 kts 96°
2026-05-04 07:36 44.85666 9.76658 33102 ft 507 kts 97°
2026-05-04 07:38 44.83083 10.16228 33104 ft 506 kts 97°
2026-05-04 07:38 44.82419 10.26096 33105 ft 506 kts 97°
2026-05-04 07:39 44.81675 10.35943 33107 ft 505 kts 98°
2026-05-04 07:39 44.80764 10.45736 33122 ft 504 kts 99°
2026-05-04 07:40 44.79829 10.55509 33126 ft 503 kts 99°
2026-05-04 07:40 44.78909 10.65280 33129 ft 503 kts 99°
2026-05-04 07:41 44.77996 10.75049 33121 ft 503 kts 98°
2026-05-04 07:41 44.77083 10.84755 33135 ft 503 kts 99°
2026-05-04 07:42 44.76155 10.94526 33131 ft 504 kts 99°
2026-05-04 07:42 44.75216 11.04311 33132 ft 504 kts 99°
2026-05-04 07:43 44.74268 11.14096 33132 ft 504 kts 99°
2026-05-04 07:43 44.73312 11.23873 33133 ft 504 kts 99°
2026-05-04 07:44 44.72348 11.33642 33131 ft 504 kts 99°
2026-05-04 07:44 44.71540 11.41762 33129 ft 504 kts 99°
2026-05-04 07:45 44.70561 11.51528 33125 ft 505 kts 99°
2026-05-04 07:45 44.69572 11.61306 33117 ft 505 kts 99°
2026-05-04 07:46 44.68573 11.71088 33110 ft 506 kts 99°
2026-05-04 07:46 44.67566 11.80875 33102 ft 506 kts 99°
2026-05-04 07:47 44.66550 11.90656 33126 ft 506 kts 99°
2026-05-04 07:49 44.62405 12.29732 33125 ft 507 kts 99°
2026-05-04 07:49 44.61344 12.39532 33114 ft 508 kts 99°
2026-05-04 07:50 44.60275 12.49324 33119 ft 508 kts 99°
2026-05-04 07:50 44.59197 12.59118 33106 ft 508 kts 99°
2026-05-04 07:51 44.58115 12.68866 33116 ft 509 kts 99°
2026-05-04 07:51 44.57015 12.78694 33110 ft 510 kts 99°
2026-05-04 07:52 44.55906 12.88528 33116 ft 510 kts 99°
2026-05-04 07:52 44.54791 12.98347 33113 ft 510 kts 99°
2026-05-04 07:54 44.50240 13.37596 33116 ft 511 kts 99°
2026-05-04 07:55 44.49080 13.47410 33109 ft 511 kts 99°
2026-05-04 07:55 44.47911 13.57229 33114 ft 511 kts 99°
2026-05-04 07:56 44.46733 13.67044 33110 ft 511 kts 99°
2026-05-04 07:56 44.45546 13.76860 33114 ft 511 kts 99°
2026-05-04 07:57 44.44350 13.86682 33118 ft 512 kts 99°
2026-05-04 07:57 44.43144 13.96509 33115 ft 512 kts 99°
2026-05-04 07:58 44.41938 14.06265 33118 ft 512 kts 99°
2026-05-04 07:58 44.40715 14.16089 33111 ft 513 kts 99°
2026-05-04 07:59 44.39482 14.25916 33125 ft 513 kts 99°
2026-05-04 07:59 44.38242 14.35734 33124 ft 513 kts 99°
2026-05-04 08:00 44.36992 14.45560 33133 ft 513 kts 99°
2026-05-04 08:02 44.31899 14.84874 33117 ft 514 kts 100°
2026-05-04 08:02 44.30606 14.94682 33120 ft 514 kts 100°
2026-05-04 08:03 44.29304 15.04493 33142 ft 514 kts 100°
2026-05-04 08:03 44.28002 15.14234 33136 ft 514 kts 99°
2026-05-04 08:04 44.26683 15.24034 33166 ft 514 kts 99°
2026-05-04 08:04 44.25354 15.33848 33157 ft 515 kts 100°
2026-05-04 08:05 44.24016 15.43658 33148 ft 515 kts 100°
2026-05-04 08:05 44.22669 15.53466 33148 ft 515 kts 99°
2026-05-04 08:06 44.21313 15.63284 33166 ft 515 kts 99°
2026-05-04 08:06 44.19947 15.73093 33140 ft 515 kts 100°
2026-05-04 08:08 44.14402 16.12294 33142 ft 515 kts 99°
2026-05-04 08:11 44.08011 16.56255 33156 ft 515 kts 99°
2026-05-04 08:11 44.05856 16.70810 33156 ft 514 kts 99°
2026-05-04 08:12 44.04404 16.80532 33150 ft 514 kts 99°
2026-05-04 08:12 44.02945 16.90249 33165 ft 513 kts 99°
2026-05-04 08:13 44.01477 16.99956 33155 ft 513 kts 99°
2026-05-04 08:13 44.00003 17.09655 33152 ft 513 kts 99°
2026-05-04 08:14 43.98520 17.19349 33158 ft 513 kts 99°
2026-05-04 08:16 43.92523 17.57959 33184 ft 511 kts 99°
2026-05-04 08:16 43.91007 17.67593 33169 ft 511 kts 99°
2026-05-04 08:17 43.89486 17.77194 33188 ft 509 kts 99°
2026-05-04 08:17 43.87959 17.86778 33155 ft 509 kts 99°
2026-05-04 08:19 43.81770 18.25041 33191 ft 509 kts 99°
2026-05-04 08:20 43.80203 18.34602 33180 ft 509 kts 99°
2026-05-04 08:20 43.78627 18.44158 33194 ft 509 kts 99°
2026-05-04 08:21 43.77043 18.53706 33181 ft 509 kts 99°
2026-05-04 08:21 43.75449 18.63260 33208 ft 509 kts 99°
2026-05-04 08:22 43.73853 18.72786 33195 ft 508 kts 99°
2026-05-04 08:24 43.67402 19.10731 33217 ft 504 kts 99°
2026-05-04 08:24 43.65776 19.20174 33193 ft 506 kts 99°
2026-05-04 08:25 43.64153 19.29547 33201 ft 505 kts 99°
2026-05-04 08:25 43.62511 19.38987 33200 ft 505 kts 99°
2026-05-04 08:27 43.55878 19.76579 33187 ft 503 kts 99°
2026-05-04 08:28 43.54206 19.85935 33184 ft 502 kts 99°
2026-05-04 08:28 43.52530 19.95263 33196 ft 501 kts 99°
2026-05-04 08:29 43.50850 20.04575 33200 ft 501 kts 99°
2026-05-04 08:31 43.44083 20.41606 33187 ft 498 kts 99°
2026-05-04 08:33 43.37524 20.76801 33197 ft 494 kts 99°
2026-05-04 08:35 43.30608 21.13224 33194 ft 490 kts 99°
2026-05-04 08:35 43.28872 21.22269 33187 ft 490 kts 99°
2026-05-04 08:37 43.22745 21.53823 33199 ft 490 kts 99°
2026-05-04 08:38 43.20975 21.62850 33211 ft 490 kts 99°
2026-05-04 08:38 43.19196 21.71878 33198 ft 491 kts 99°
2026-05-04 08:40 43.12010 22.07933 33219 ft 491 kts 99°
2026-05-04 08:41 43.10191 22.16958 33205 ft 492 kts 99°
2026-05-04 08:41 43.08363 22.25987 33205 ft 492 kts 100°
2026-05-04 08:42 43.06539 22.34950 33239 ft 492 kts 100°
2026-05-04 08:42 43.04696 22.43973 33190 ft 491 kts 100°
2026-05-04 08:43 43.02854 22.52952 33188 ft 490 kts 100°
2026-05-04 08:43 43.01008 22.61910 33190 ft 489 kts 100°
2026-05-04 08:44 42.99160 22.70851 33193 ft 489 kts 101°
2026-05-04 08:46 42.89790 23.05675 33172 ft 490 kts 108°
2026-05-04 08:46 42.87272 23.14286 33177 ft 488 kts 108°
2026-05-04 08:47 42.84756 23.22885 33177 ft 488 kts 108°
2026-05-04 08:47 42.82234 23.31472 33211 ft 487 kts 108°
2026-05-04 08:48 42.79724 23.39984 33182 ft 482 kts 109°
2026-05-04 08:48 42.77227 23.48421 33168 ft 478 kts 109°
2026-05-04 08:49 42.74745 23.56784 33164 ft 476 kts 109°
2026-05-04 08:50 42.66026 23.85947 33155 ft 476 kts 109°
2026-05-04 08:51 42.63517 23.94281 33165 ft 477 kts 110°
2026-05-04 08:51 42.61018 24.02558 33150 ft 476 kts 110°
2026-05-04 08:52 42.58471 24.10862 33143 ft 476 kts 111°
2026-05-04 08:52 42.55762 24.19057 33135 ft 476 kts 112°
2026-05-04 08:54 42.44826 24.51663 33122 ft 473 kts 113°
2026-05-04 08:55 42.42112 24.59743 33116 ft 469 kts 113°
2026-05-04 08:55 42.39413 24.67751 33111 ft 466 kts 113°
2026-05-04 09:01 42.12747 25.45647 33118 ft 458 kts 114°
2026-05-04 09:05 42.11517 25.49185 33111 ft 458 kts 114°
2026-05-04 09:06 42.10121 25.53193 33195 ft 456 kts 114°
2026-05-04 09:08 42.06646 25.63160 33118 ft 458 kts 114°
2026-05-04 09:08 42.03937 25.70909 33112 ft 457 kts 115°
2026-05-04 09:09 42.01226 25.78636 33109 ft 456 kts 115°
2026-05-04 09:09 41.98516 25.86338 33113 ft 455 kts 115°
2026-05-04 09:10 41.95802 25.94031 33109 ft 456 kts 114°
2026-05-04 09:10 41.93102 26.01667 33112 ft 456 kts 114°
2026-05-04 09:11 41.90375 26.09357 33085 ft 456 kts 114°
2026-05-04 09:11 41.88994 26.13244 32080 ft 468 kts 114°
2026-05-04 09:11 41.87590 26.17187 31126 ft 467 kts 114°
2026-05-04 09:11 41.86193 26.21109 30336 ft 463 kts 114°
2026-05-04 09:12 41.84810 26.24983 29571 ft 457 kts 114°
2026-05-04 09:12 41.83455 26.28769 29434 ft 446 kts 113°
2026-05-04 09:14 41.75958 26.53910 27413 ft 396 kts 108°
2026-05-04 09:14 41.74977 26.57352 27107 ft 396 kts 111°
2026-05-04 09:14 41.73604 26.60550 26783 ft 397 kts 121°
2026-05-04 09:14 41.72021 26.63575 26481 ft 396 kts 122°
2026-05-04 09:15 41.70441 26.66592 26170 ft 396 kts 121°
2026-05-04 09:15 41.68889 26.69637 25859 ft 395 kts 121°
2026-05-04 09:15 41.67363 26.72696 25552 ft 395 kts 120°
2026-05-04 09:15 41.65843 26.75761 25230 ft 395 kts 120°
2026-05-04 09:17 41.47021 26.88774 22652 ft 384 kts 114°
2026-05-04 09:18 41.46041 26.92052 22329 ft 378 kts 99°
2026-05-04 09:18 41.45677 26.95490 22041 ft 373 kts 92°
2026-05-04 09:18 41.45436 26.98937 21744 ft 374 kts 91°
2026-05-04 09:18 41.45183 27.02394 21437 ft 374 kts 92°
2026-05-04 09:19 41.44898 27.05843 21129 ft 374 kts 92°
2026-05-04 09:19 41.44598 27.09289 20844 ft 374 kts 92°
2026-05-04 09:19 41.44291 27.12737 20548 ft 373 kts 92°
2026-05-04 09:19 41.43991 27.16124 20255 ft 372 kts 92°
2026-05-04 09:20 41.43685 27.19553 19980 ft 372 kts 92°
2026-05-04 09:20 41.43381 27.22971 19677 ft 371 kts 92°
2026-05-04 09:20 41.43077 27.26383 19376 ft 371 kts 91°
2026-05-04 09:20 41.42773 27.29785 19075 ft 370 kts 91°
2026-05-04 09:21 41.42430 27.33182 18748 ft 370 kts 96°
2026-05-04 09:21 41.41660 27.36482 18409 ft 375 kts 106°
2026-05-04 09:21 41.40690 27.39668 17727 ft 367 kts 109°
2026-05-04 09:21 41.39533 27.42696 16851 ft 366 kts 114°
2026-05-04 09:22 41.38709 27.44646 16280 ft 364 kts 115°
2026-05-04 09:22 41.37007 27.48534 15423 ft 363 kts 115°
2026-05-04 09:22 41.35738 27.51410 15102 ft 357 kts 115°
2026-05-04 09:22 41.34509 27.54207 14769 ft 353 kts 115°
2026-05-04 09:23 41.33281 27.57016 14440 ft 350 kts 114°
2026-05-04 09:23 41.32067 27.59808 14114 ft 348 kts 114°
2026-05-04 09:23 41.30860 27.62592 13813 ft 346 kts 114°
2026-05-04 09:23 41.29661 27.65361 13462 ft 345 kts 114°
2026-05-04 09:25 41.21824 27.83421 11385 ft 333 kts 115°
2026-05-04 09:25 41.20666 27.86081 11076 ft 332 kts 115°
2026-05-04 09:26 41.19515 27.88720 10798 ft 328 kts 115°
2026-05-04 09:26 41.18377 27.91327 10487 ft 324 kts 115°
2026-05-04 09:26 41.17253 27.93901 10184 ft 320 kts 115°
2026-05-04 09:26 41.16145 27.96435 9900 ft 315 kts 115°
2026-05-04 09:27 41.15063 27.98907 9760 ft 305 kts 115°
2026-05-04 09:27 41.14012 28.01304 9630 ft 296 kts 115°
2026-05-04 09:27 41.12989 28.03637 9285 ft 294 kts 115°
2026-05-04 09:27 41.11958 28.05998 8893 ft 294 kts 115°
2026-05-04 09:28 41.10932 28.08339 8538 ft 294 kts 115°
2026-05-04 09:28 41.09916 28.10659 8218 ft 286 kts 115°
2026-05-04 09:28 41.08935 28.12887 7921 ft 275 kts 115°
2026-05-04 09:28 41.07975 28.15072 7675 ft 276 kts 115°
2026-05-04 09:29 41.06997 28.17304 7454 ft 282 kts 115°
2026-05-04 09:29 41.06008 28.19554 7177 ft 281 kts 115°
2026-05-04 09:29 41.05029 28.21775 6912 ft 278 kts 116°
2026-05-04 09:29 41.04070 28.23949 6661 ft 275 kts 116°
2026-05-04 09:30 41.03111 28.26122 6413 ft 271 kts 116°
2026-05-04 09:30 41.02164 28.28266 6145 ft 269 kts 116°
2026-05-04 09:30 41.01225 28.30392 5897 ft 266 kts 115°
2026-05-04 09:30 41.00294 28.32500 5645 ft 265 kts 115°
2026-05-04 09:31 40.99361 28.34611 5453 ft 265 kts 115°
2026-05-04 09:31 40.98432 28.36707 5173 ft 262 kts 115°
2026-05-04 09:31 40.97521 28.38762 5033 ft 254 kts 115°
2026-05-04 09:31 40.96655 28.40754 4957 ft 247 kts 115°
2026-05-04 09:32 40.95809 28.42725 4953 ft 248 kts 114°
2026-05-04 09:32 40.94958 28.44707 4930 ft 247 kts 115°
2026-05-04 09:34 40.89304 28.58385 4878 ft 229 kts 88°
2026-05-04 09:34 40.89541 28.60385 4895 ft 223 kts 65°
2026-05-04 09:34 40.90059 28.62342 4895 ft 229 kts 65°
2026-05-04 09:34 40.90569 28.64336 4885 ft 229 kts 65°
2026-05-04 09:35 40.91081 28.66328 4880 ft 229 kts 65°
2026-05-04 09:35 40.91627 28.68297 4865 ft 222 kts 56°
2026-05-04 09:35 40.92661 28.69666 4875 ft 208 kts 25°
2026-05-04 09:35 40.93953 28.70589 4880 ft 215 kts 26°
2026-05-04 09:37 41.03735 28.73295 4657 ft 213 kts 358°
2026-05-04 09:37 41.05215 28.73262 4401 ft 212 kts 358°
2026-05-04 09:38 41.06674 28.73228 4133 ft 208 kts 359°
2026-05-04 09:38 41.08111 28.73195 3831 ft 205 kts 359°
2026-05-04 09:38 41.09528 28.73163 3546 ft 201 kts 359°
2026-05-04 09:38 41.10911 28.73129 3282 ft 197 kts 358°
2026-05-04 09:39 41.12268 28.73097 3128 ft 194 kts 359°
2026-05-04 09:39 41.13602 28.73067 2862 ft 190 kts 359°
2026-05-04 09:39 41.14892 28.73040 2623 ft 182 kts 358°
2026-05-04 09:39 41.16101 28.73010 2386 ft 169 kts 358°
2026-05-04 09:40 41.17211 28.72983 2192 ft 146 kts 358°
2026-05-04 09:40 41.18168 28.72964 1993 ft 132 kts 357°
2026-05-04 09:40 41.19102 28.72942 1793 ft 134 kts 357°
2026-05-04 09:40 41.20033 28.72919 1623 ft 135 kts 358°
2026-05-04 09:41 41.20985 28.72898 1438 ft 138 kts 357°
2026-05-04 09:42 41.27405 28.72748 335 ft 92 kts 359°
2026-05-04 09:43 41.27872 28.72740 335 ft 41 kts
2026-05-04 09:43 41.28070 28.72836 335 ft 19 kts 28°
2026-05-04 09:43 41.28137 28.72926 334 ft 9 kts 89°
2026-05-04 09:43 41.28090 28.72965 334 ft 9 kts 183°
2026-05-04 09:44 41.28002 28.72963 334 ft 20 kts 178°
2026-05-04 09:44 41.27804 28.72969 334 ft 36 kts 179°
2026-05-04 09:44 41.27584 28.72972 335 ft 26 kts 179°
2026-05-04 09:46 41.26868 28.73320 335 ft 18 kts 89°
2026-05-04 09:46 41.26871 28.73475 335 ft 18 kts 88°
2026-05-04 09:46 41.26873 28.73640 335 ft 18 kts 89°
2026-05-04 09:47 41.26875 28.73802 335 ft 16 kts 88°
2026-05-04 09:47 41.26876 28.73932 336 ft 9 kts 89°
2026-05-04 09:49 41.26939 28.74607 336 ft 8 kts 177°
2026-05-04 09:49 41.26888 28.74669 335 ft 9 kts 98°
2026-05-04 09:49 41.26873 28.74733 333 ft 4 kts 143°
2026-05-04 09:51 41.26790 28.74744 335 ft 0 kts 179°